GFSGBSN_prec_cthk_000.txt.gz
RH
52 54 58 50 50 43 30 34 28 34 38 36 36 30 27 21 21 25 28 34 37 41 44 43 43 43 42 46 48 51 52 51 48 49 48 50 53 50 47 46 45 49 42 40 41 39 40
48 50 55 51 54 50 47 32 35 30 36 37 37 35 31 26 20 23 25 31 38 43 43 43 42 45 46 48 42 42 51 56 58 54 52 50 48 51 53 50 49 47 49 46 44 41 41
19 33 46 44 54 65 54 47 36 34 33 37 37 39 36 31 23 22 24 29 38 46 44 42 43 44 46 45 43 43 46 51 54 56 53 54 51 60 61 56 51 52 52 52 47 46 47
24 21 21 39 40 59 63 52 45 37 38 40 42 40 42 35 29 23 23 30 35 47 47 49 46 49 47 45 43 46 48 51 54 57 57 62 60 66 66 64 63 60 57 60 50 54 51
23 24 23 18 34 35 52 65 55 47 42 42 46 45 45 41 35 28 30 29 34 41 47 50 51 51 48 45 45 46 48 50 51 54 55 64 65 64 65 70 72 70 67 60 56 53 58
25 25 24 26 19 32 43 58 65 58 50 52 51 49 48 46 38 33 36 34 38 43 45 49 51 54 46 44 44 45 47 51 55 56 54 62 66 67 70 71 70 65 66 58 57 59 59
26 26 25 27 26 19 34 39 61 68 59 52 54 53 54 51 44 37 39 39 42 43 45 41 42 43 42 44 44 46 48 54 59 61 64 64 68 66 62 65 70 70 71 66 65 64 64
25 33 27 27 31 28 19 46 58 63 68 65 58 55 58 54 53 45 39 41 40 41 40 39 41 44 47 52 51 49 50 57 62 67 70 75 73 66 64 61 66 69 72 67 65 68 67
25 25 35 31 30 27 32 23 65 75 69 68 61 61 60 60 57 51 44 45 43 45 46 42 40 46 48 53 57 56 58 62 68 71 73 79 67 62 67 68 69 65 67 68 72 68 65
34 34 34 36 36 37 34 30 33 69 86 80 68 64 64 63 59 52 49 53 52 50 52 43 47 51 53 58 61 61 66 70 76 77 82 83 73 70 70 72 73 70 64 64 63 71 74
36 40 38 39 37 42 52 45 27 78 98 89 85 80 74 59 57 51 52 57 55 54 52 44 52 57 59 60 63 67 72 78 82 82 85 80 76 77 74 71 74 68 67 66 69 71 79
38 44 39 41 49 63 57 56 41 58 85 97 99 96 82 71 59 56 58 62 64 66 62 54 56 60 65 67 72 75 81 84 84 84 81 81 83 82 76 72 70 80 80 78 75 77 83
44 43 39 43 62 77 69 66 57 45 85 97 99 96 86 78 62 61 67 68 66 68 49 58 61 64 68 74 79 87 85 81 87 90 89 95 91 86 86 87 83 82 86 95 96 88 76
49 50 45 55 77 84 82 85 77 63 83 95 97 97 92 78 67 69 71 69 69 48 52 56 61 68 74 77 87 77 76 82 85 91 97 95 92 93 80 76 84 82 80 90 93 91 67
52 50 52 59 81 89 88 86 79 67 82 96 98 90 88 90 72 72 71 75 57 49 52 61 70 76 83 88 76 76 85 85 79 85 95 96 93 80 79 81 83 81 92 64 88 82 86
53 51 47 72 92 97 98 85 82 78 90 95 97 98 90 94 79 78 77 66 59 56 63 64 74 79 88 78 73 82 83 73 80 81 90 84 83 72 79 84 82 73 65 83 89 93 85
48 49 62 71 90 91 95 85 82 90 90 97 97 98 99 90 88 82 77 72 66 64 63 67 78 89 85 70 71 72 70 64 69 71 78 79 85 84 85 82 85 85 85 75 63 73 90
55 43 63 72 76 80 94 90 95 91 95 98 98 98 95 89 85 84 82 76 70 67 65 74 83 93 82 70 77 78 69 60 65 71 76 74 91 93 83 82 81 76 72 69 69 58 68
54 45 53 64 65 69 98 91 94 96 95 98 97 98 98 95 82 84 83 77 73 70 73 81 92 90 75 73 79 75 68 63 68 77 83 85 94 98 95 91 88 93 71 65 58 59 94
53 50 41 48 62 80 97 97 98 98 98 98 97 98 99 91 92 86 79 74 78 71 78 86 94 88 77 74 72 78 81 74 75 80 85 92 97 97 93 99 84 81 72 68 81 68 74
54 50 40 38 64 76 92 98 96 98 98 98 97 96 85 90 89 88 77 73 78 75 86 90 96 90 81 75 69 75 78 76 81 88 93 95 97 97 95 97 98 85 79 83 89 78 73
54 53 45 38 60 77 91 93 95 96 95 97 97 96 89 88 91 91 76 75 78 80 88 94 96 90 81 70 60 64 70 78 82 92 97 97 97 98 98 93 88 90 90 90 90 94 86
45 54 48 44 50 71 85 91 96 96 98 98 98 96 87 90 92 87 79 79 79 78 79 90 95 92 84 76 68 73 72 75 81 90 96 97 98 98 98 93 90 94 85 88 94 95 94
43 53 46 54 51 68 84 88 95 98 97 98 98 96 95 97 95 80 81 83 83 76 71 78 91 94 85 77 70 77 74 73 75 81 85 90 95 96 99 97 90 71 82 87 91 91 92
40 43 56 56 50 66 74 87 93 97 97 98 92 88 84 87 84 76 79 83 82 73 60 76 94 93 92 82 81 87 78 76 69 78 79 81 85 91 89 84 73 66 71 79 76 79 77
42 40 46 54 48 63 77 89 93 96 95 96 98 95 85 91 86 78 81 83 85 79 68 91 96 96 92 87 90 86 83 70 69 76 73 76 79 84 86 82 73 61 60 62 64 70 64
44 48 46 39 45 56 87 91 94 97 98 99 98 98 90 94 85 81 85 84 82 72 84 95 97 99 97 91 93 89 89 76 77 70 76 75 77 80 83 85 72 63 59 61 65 61 54
50 51 44 34 47 58 77 87 96 98 98 97 96 94 90 82 77 85 85 85 85 79 96 96 98 98 96 97 94 95 85 82 78 74 71 73 79 79 78 84 82 65 58 58 59 55 56
42 44 51 32 42 58 69 80 92 94 97 98 97 90 84 78 78 89 85 91 85 80 95 97 98 98 94 96 88 88 88 88 79 86 74 76 68 74 74 73 67 66 64 63 60 59 59

GFSGBSN_prec_cthk_003.txt.gz
RH
24 28 34 47 55 66 60 53 47 40 35 31 42 43 38 34 28 24 27 31 36 41 45 46 44 43 44 54 55 49 46 45 47 48 48 53 54 52 49 47 45 49 43 43 43 43 43
22 21 26 30 38 39 55 66 63 50 42 36 33 46 40 39 35 24 26 27 34 37 46 48 48 50 48 46 39 44 47 47 47 48 48 50 49 51 54 53 50 48 47 45 45 44 43
21 22 21 20 18 31 31 62 71 63 51 46 37 39 45 41 40 34 26 29 33 37 42 46 46 45 46 44 39 37 43 48 47 49 48 48 51 56 62 58 54 54 50 46 47 44 45
23 24 26 24 22 18 26 38 61 75 63 51 44 43 49 48 44 39 29 30 36 37 45 49 48 48 46 43 40 40 40 45 47 49 47 49 55 53 63 66 64 63 60 58 43 47 49
19 23 25 26 26 25 24 27 40 66 72 62 55 50 55 53 49 46 36 34 36 34 42 49 52 49 48 45 43 41 43 44 46 46 49 49 55 58 58 66 69 65 63 62 58 50 53
22 22 23 25 27 26 26 24 30 39 57 73 62 55 63 57 53 49 40 44 40 38 40 46 48 50 45 44 43 41 40 44 47 47 50 50 54 61 63 66 65 68 75 66 65 57 59
25 25 24 23 24 26 26 26 25 33 51 68 71 64 67 69 54 54 45 48 45 47 45 40 43 43 43 44 44 43 41 44 47 49 53 53 59 61 60 65 65 70 74 74 66 65 60
25 26 26 32 30 23 27 26 26 22 39 56 73 74 74 73 71 56 54 48 42 43 45 43 44 43 43 44 43 46 46 49 53 56 57 60 59 56 60 64 67 69 72 73 66 64 65
30 34 34 36 28 26 31 32 28 28 30 43 73 77 76 81 68 66 55 51 50 48 45 38 37 41 41 46 50 49 49 51 55 59 61 60 54 55 61 64 69 70 73 70 70 67 63
36 38 39 41 40 37 36 40 41 34 32 49 65 78 83 83 79 64 59 56 54 57 57 42 44 44 43 50 51 47 52 52 59 63 67 65 59 65 68 66 72 74 71 71 69 70 71
37 42 46 48 45 40 52 51 56 51 37 55 89 89 86 87 77 75 57 59 61 61 62 48 52 51 52 51 54 56 57 60 65 71 73 67 68 71 70 67 72 73 73 75 76 79 78
46 44 52 54 48 47 55 64 73 59 43 55 84 94 97 95 85 74 69 58 67 67 66 59 57 57 58 56 57 60 64 67 72 78 80 74 72 73 68 66 71 75 81 82 82 82 82
45 51 55 54 59 60 85 85 84 68 50 49 87 96 99 96 87 74 65 68 75 72 52 60 56 59 57 62 63 66 73 77 81 86 81 80 74 74 74 74 76 78 87 97 98 95 80
51 57 61 56 59 80 92 91 88 71 59 51 88 92 92 97 97 90 69 72 71 50 56 55 57 63 59 61 66 72 79 76 69 77 88 88 85 80 75 78 84 88 85 92 89 94 81
57 60 70 61 66 78 92 90 84 80 67 75 82 95 98 97 97 90 74 74 59 48 51 57 61 64 67 68 70 78 71 56 61 72 89 92 89 77 77 82 88 95 96 69 80 82 98
54 57 68 69 80 88 94 97 98 96 86 91 90 98 98 99 94 92 80 64 55 52 54 56 62 61 65 70 77 72 58 55 64 64 79 88 88 79 83 88 83 82 82 97 97 95 95
51 52 59 73 85 82 87 91 98 98 85 90 97 97 98 98 95 95 78 62 58 57 60 65 65 67 68 73 77 63 60 54 60 63 72 87 93 88 88 80 78 90 89 87 80 82 84
52 53 54 63 81 74 79 82 98 99 98 92 95 97 99 95 96 92 82 63 60 64 67 68 64 71 73 80 81 70 69 62 62 70 81 83 89 86 77 84 82 85 83 84 92 76 63
51 47 56 56 69 64 75 78 90 95 98 98 98 98 98 98 88 88 73 69 75 77 74 68 71 77 81 84 75 70 73 68 73 78 85 90 95 95 95 95 94 91 84 70 64 76 64
50 47 55 54 60 54 71 80 89 98 96 95 97 98 98 97 93 84 75 82 83 77 71 72 80 84 88 82 67 68 74 71 74 83 89 95 98 96 89 95 94 93 80 63 66 73 63
47 49 59 55 42 54 70 81 90 97 93 95 94 90 84 87 88 77 86 85 83 85 79 81 86 90 90 79 70 71 72 81 85 89 95 98 97 98 94 93 98 86 76 64 61 51 63
46 46 59 54 59 51 66 80 87 97 97 97 98 90 89 88 88 84 86 82 79 84 90 85 90 89 91 81 63 59 68 76 83 93 96 97 97 98 98 97 96 83 77 74 66 62 68
46 49 57 56 59 50 64 82 92 97 98 98 98 97 89 86 89 89 83 81 83 84 88 82 88 91 89 80 65 60 68 77 87 95 98 98 98 98 95 96 88 86 74 76 71 73 77
46 49 58 54 53 51 67 82 93 98 98 99 99 98 98 96 87 85 88 89 83 88 84 76 81 89 91 82 66 61 72 70 83 89 94 98 98 98 98 99 97 86 81 80 81 85 84
43 52 52 56 48 49 67 82 96 97 97 98 98 98 93 89 90 91 91 87 91 90 86 75 70 71 92 89 74 71 79 72 75 76 87 92 95 98 99 94 83 87 94 95 94 93 87
45 42 53 53 46 45 67 79 90 95 93 92 96 98 98 97 95 94 96 85 89 93 91 79 71 92 96 93 84 80 75 76 74 69 77 86 88 88 88 90 76 70 82 84 88 87 80
48 42 36 44 42 37 61 84 92 92 92 94 97 95 95 91 90 87 88 82 84 90 88 77 91 96 98 95 89 78 76 72 75 75 74 79 83 83 84 85 76 67 67 72 87 69 67
40 47 42 40 41 31 48 73 85 90 94 94 97 96 92 89 91 94 86 84 89 91 88 89 97 97 98 97 90 85 79 80 73 71 69 70 70 77 79 83 80 68 65 68 63 59 59
40 45 34 35 38 30 41 66 75 87 94 96 96 99 99 95 91 90 86 86 88 90 79 94 97 98 96 94 87 86 79 83 76 79 73 74 66 71 70 72 67 69 66 63 61 59 61

GFSGBSN_prec_cthk_006.txt.gz
RH
20 21 18 17 19 28 33 46 58 68 69 51 47 39 50 49 41 38 26 28 32 39 46 48 49 49 55 57 57 51 49 47 48 55 59 58 55 50 47 46 45 49 43 41 39 39 39
16 20 23 20 20 18 19 24 34 45 72 71 56 53 46 51 48 41 33 26 29 37 44 47 52 55 51 53 50 57 53 53 52 55 55 54 54 52 54 53 50 48 48 46 43 41 41
19 18 18 21 23 20 19 22 20 32 52 76 71 59 49 54 55 45 40 28 30 34 40 44 49 52 53 50 46 43 50 51 49 51 50 49 49 51 54 53 51 51 51 48 44 43 43
19 19 20 20 19 23 24 23 21 18 40 66 75 67 58 58 61 51 45 39 34 37 44 45 46 53 50 46 44 45 45 49 49 49 50 50 50 49 52 53 56 58 58 59 47 44 43
23 23 24 23 25 25 25 25 27 24 24 46 67 75 67 62 70 57 51 45 39 42 40 46 49 52 49 47 46 44 44 44 46 49 50 49 50 50 52 54 55 56 60 61 58 54 51
28 26 26 25 25 25 24 24 26 27 26 28 49 79 73 68 76 74 59 53 49 45 41 42 42 49 45 44 45 47 46 47 47 48 50 50 51 52 54 56 57 55 61 57 57 57 55
28 27 26 28 28 27 26 25 26 28 28 26 31 59 76 75 72 79 67 60 56 53 45 37 40 39 39 44 45 45 45 46 48 49 52 50 54 52 49 51 51 57 62 64 61 58 60
34 39 39 44 40 32 27 29 34 36 29 25 28 40 73 83 81 81 74 57 54 46 46 42 39 39 41 43 45 46 45 45 49 53 54 55 53 48 50 54 60 62 64 63 60 58 58
38 37 36 46 47 44 37 35 38 38 42 35 26 39 71 86 85 85 74 67 56 51 46 38 38 41 42 45 45 44 44 48 51 56 58 56 48 46 52 58 62 65 66 66 63 56 51
31 33 42 43 43 49 46 47 44 49 51 49 33 25 64 87 91 90 85 71 60 55 55 43 44 40 39 44 45 42 45 48 54 56 58 59 52 55 59 63 68 68 64 66 67 70 73
34 40 43 49 52 52 59 62 63 67 62 67 44 28 51 85 98 95 83 79 61 54 67 49 54 52 51 43 46 48 50 52 57 58 60 56 57 62 66 66 72 70 68 73 75 79 80
43 42 51 57 61 61 66 83 87 82 72 66 51 30 71 98 99 95 92 84 65 62 65 59 59 62 59 53 56 59 57 56 58 60 62 62 64 68 71 74 78 82 83 83 84 85 83
41 44 48 56 69 64 73 83 86 97 84 73 54 34 67 98 99 94 96 82 77 69 54 61 58 59 60 60 61 60 62 66 66 74 71 65 57 58 66 77 84 86 91 94 95 94 79
40 46 53 53 70 75 79 89 90 90 85 79 59 49 69 83 97 97 95 88 80 56 57 56 55 58 60 61 60 64 65 70 74 73 70 68 63 59 66 76 85 89 90 94 87 90 83
44 45 55 53 75 76 87 88 89 98 97 78 58 78 96 94 97 91 95 88 66 50 55 58 58 60 63 63 62 68 71 70 64 67 69 71 72 65 66 77 88 98 97 75 87 80 94
42 47 54 51 69 74 82 73 85 94 99 88 83 87 94 97 99 97 92 80 64 51 54 55 57 56 61 61 68 74 69 57 64 56 62 74 81 67 73 76 80 90 92 97 97 96 92
48 52 55 47 64 71 80 69 83 88 98 80 83 91 96 96 98 98 93 80 66 57 54 57 57 60 56 62 69 69 61 60 56 58 64 80 81 77 83 76 80 93 91 96 90 92 86
50 53 51 52 58 67 67 68 77 86 98 85 80 81 94 96 98 98 94 78 72 63 60 62 61 57 61 68 74 74 75 60 64 72 78 81 87 87 80 77 75 71 73 79 83 74 78
53 58 46 56 59 57 59 75 76 92 97 88 96 95 97 97 97 89 85 81 73 66 65 62 63 63 65 70 75 80 69 60 70 74 81 86 94 96 94 93 92 91 85 81 80 86 78
55 56 52 59 62 58 47 69 77 91 94 92 97 98 98 98 93 87 83 82 67 66 70 71 72 68 72 76 82 75 70 69 74 78 84 91 98 96 90 95 97 98 94 91 88 88 65
55 50 47 57 64 57 50 74 84 90 95 98 97 97 89 89 92 89 84 78 73 79 78 77 77 73 80 87 85 78 71 74 82 86 94 97 94 97 96 93 98 98 97 83 82 71 71
51 47 50 61 65 50 54 76 90 95 93 95 98 96 89 86 91 90 86 84 86 86 89 82 78 82 84 92 83 71 71 75 80 86 95 97 96 98 97 98 96 90 85 80 71 65 66
50 49 45 48 63 45 54 80 97 94 93 97 97 95 85 93 92 84 74 82 89 85 82 83 82 85 90 91 87 79 73 73 80 92 97 98 98 98 94 96 89 81 73 74 72 71 66
47 53 34 44 61 45 44 77 95 94 95 97 95 90 89 92 86 82 85 86 85 84 84 86 84 84 86 89 85 81 72 66 73 79 90 98 99 99 96 98 98 92 85 78 70 73 71
44 44 43 30 46 51 44 71 87 94 97 98 97 97 90 90 89 87 91 90 88 88 88 87 81 74 78 79 87 81 75 69 70 76 86 92 99 98 98 98 89 88 93 82 79 77 75
39 37 44 35 41 46 41 60 79 92 94 98 98 98 98 95 88 85 89 92 94 90 90 91 92 77 74 93 93 83 78 73 73 74 78 93 92 97 94 96 80 78 91 88 85 91 74
39 34 37 29 30 39 40 55 75 86 94 97 97 98 98 96 90 86 88 90 87 84 88 93 86 82 90 95 96 91 80 70 77 78 78 84 91 90 86 84 78 69 74 79 82 73 70
35 33 35 32 31 34 32 49 70 81 92 94 98 98 98 95 93 92 92 93 86 79 87 96 89 93 97 96 97 96 83 74 77 73 74 76 79 82 81 83 73 66 70 74 65 61 67
32 36 35 36 30 33 32 44 63 77 89 91 95 97 96 97 92 88 93 89 88 89 94 91 88 96 96 97 95 96 89 82 78 78 73 76 70 72 75 71 68 65 64 61 57 58 59

GFSGBSN_prec_cthk_009.txt.gz
RH
17 16 17 17 16 17 15 16 17 23 43 53 63 74 61 44 62 50 47 38 26 31 39 43 44 52 59 61 60 56 54 52 52 59 61 60 55 49 47 44 44 48 41 39 38 37 35
19 18 19 21 20 21 24 23 19 16 16 24 45 64 66 62 55 61 49 42 29 31 39 45 46 51 54 60 59 58 57 55 53 55 58 60 58 55 52 51 50 47 48 45 43 40 38
22 23 23 24 25 23 26 26 26 23 22 21 28 49 68 69 58 70 55 48 37 31 36 43 43 49 55 56 51 49 56 58 57 59 57 59 58 54 53 54 53 52 52 47 43 41 43
26 29 26 27 27 28 27 26 26 25 26 24 22 46 66 71 67 67 71 53 44 36 39 43 41 44 48 51 50 51 53 55 56 54 52 52 53 53 54 54 54 55 55 55 46 45 42
26 27 30 28 29 28 28 28 28 26 27 27 26 30 63 76 75 67 77 62 49 45 47 49 46 43 43 50 51 49 48 52 53 54 54 53 53 52 53 54 54 53 52 55 50 48 49
35 38 38 35 34 31 30 33 32 30 27 28 26 24 48 75 72 76 82 75 59 51 53 49 46 43 40 46 48 50 48 48 49 52 55 54 54 53 53 54 52 52 57 53 51 48 49
41 38 32 37 41 43 43 34 35 31 39 32 35 28 25 55 85 81 85 80 73 57 51 41 40 40 39 43 45 50 51 52 52 51 53 53 54 52 49 48 48 53 56 58 55 51 53
30 38 39 40 41 43 47 45 41 43 38 42 38 37 26 55 86 89 85 81 68 52 47 46 44 44 43 41 43 48 49 50 53 53 53 53 52 49 50 51 53 55 58 55 50 52 53
37 40 39 37 36 44 49 52 50 59 58 51 56 49 40 44 81 91 84 82 76 63 51 42 43 42 42 42 43 45 47 49 49 52 51 51 47 47 49 53 56 54 57 56 55 58 52
40 39 37 36 40 44 53 65 65 75 79 78 65 61 47 32 64 85 88 87 89 68 57 43 42 42 44 46 47 45 46 45 49 49 51 51 47 50 54 55 57 58 56 60 62 69 64
37 35 36 38 44 50 63 67 73 83 79 78 69 64 50 36 59 97 95 91 81 67 56 47 53 51 48 46 44 47 47 48 52 51 52 48 51 53 57 57 62 59 56 61 69 76 76
33 33 36 42 52 52 71 71 77 79 94 88 73 67 53 41 73 98 99 97 91 81 63 58 58 60 57 52 54 55 54 54 54 55 57 54 55 57 60 57 56 57 64 68 70 81 86
34 35 34 44 56 58 74 73 81 88 94 98 77 58 49 46 71 97 99 98 96 85 59 60 58 64 60 60 62 59 62 63 62 66 64 59 60 61 56 54 54 61 75 79 86 89 79
36 36 44 56 57 56 79 77 84 89 96 99 93 56 42 51 74 98 99 98 95 73 68 53 51 61 61 57 59 61 62 64 61 64 68 70 61 56 55 55 60 65 74 79 92 88 80
36 39 51 57 56 56 78 77 78 82 97 99 86 58 43 46 91 99 98 97 82 72 64 58 59 61 62 58 58 59 62 62 60 66 71 67 61 56 57 63 62 76 75 65 95 93 97
39 45 58 58 51 62 73 75 74 87 95 99 95 71 54 64 91 98 99 93 80 75 62 56 57 57 61 61 64 63 64 60 62 58 61 66 68 59 65 70 69 73 77 82 86 96 94
41 47 56 55 56 62 70 74 72 81 97 98 91 71 68 83 94 98 98 91 79 75 64 59 57 60 59 62 64 67 62 55 57 60 67 68 75 69 74 76 69 79 84 90 93 95 92
39 47 53 56 60 58 63 66 67 76 95 99 87 82 82 96 98 98 97 81 76 78 72 62 53 54 57 58 65 64 66 62 60 63 74 75 83 80 72 68 73 78 80 88 95 88 87
37 45 49 57 63 59 57 54 69 77 93 92 96 93 91 92 93 95 90 82 84 82 70 60 56 55 57 60 68 69 68 68 66 68 75 79 86 86 78 81 83 94 91 90 89 90 87
34 42 40 58 67 59 39 57 73 84 96 95 96 99 98 91 94 92 88 87 86 83 73 59 59 58 62 68 66 70 76 70 70 72 75 82 87 86 79 84 98 98 95 96 98 92 78
35 42 40 49 61 65 51 76 86 96 98 98 99 95 91 94 97 87 88 87 88 87 70 65 67 69 69 75 77 78 76 74 74 72 83 88 90 92 91 91 96 98 93 91 91 81 79
35 37 41 44 50 60 49 82 93 98 98 96 98 94 89 92 96 89 85 82 82 76 70 76 77 76 75 83 76 76 73 71 71 78 90 94 94 95 92 94 96 94 88 80 78 76 73
37 33 35 43 44 53 48 78 89 85 83 93 97 95 88 88 94 88 84 81 75 76 83 85 80 81 84 80 78 80 78 77 81 81 86 94 96 95 87 89 98 97 86 84 80 76 78
34 31 31 36 46 48 43 63 81 87 91 92 94 97 93 90 85 86 83 80 84 85 85 85 82 83 79 80 82 80 82 78 76 77 84 94 98 98 94 98 98 97 91 85 78 71 73
31 34 27 31 26 45 46 48 74 89 96 99 98 96 92 88 85 84 81 83 83 83 84 83 81 80 76 74 75 80 83 78 71 73 81 88 96 98 98 98 95 81 87 87 78 78 75
28 32 29 29 27 36 46 45 57 81 91 95 95 96 95 90 82 79 84 87 87 89 84 85 86 88 84 75 77 89 86 74 74 74 80 84 93 96 98 97 97 78 89 84 84 85 78
25 25 27 29 31 29 42 47 53 71 87 94 97 99 98 94 85 82 86 88 90 89 90 87 90 88 82 83 92 93 86 82 77 74 77 82 86 90 91 94 85 78 82 85 81 80 75
18 21 21 22 23 26 35 43 51 59 78 95 95 97 98 95 93 86 83 82 86 85 81 87 89 86 89 95 96 97 92 84 74 70 75 74 80 80 80 84 80 75 78 80 72 72 73
17 16 21 18 24 30 32 44 45 52 73 86 94 94 96 95 93 87 82 83 86 79 78 87 88 86 92 95 97 98 91 82 77 76 72 76 68 70 71 68 66 70 70 68 65 65 67

GFSGBSN_prec_cthk_012.txt.gz
RH
22 26 28 25 28 27 25 25 21 18 16 15 18 40 54 65 65 60 65 59 46 31 30 37 41 48 54 60 61 53 53 52 50 59 58 54 51 47 44 43 43 44 36 37 37 35 33
26 28 29 26 28 27 30 29 28 27 22 19 17 18 40 50 66 64 64 69 52 38 31 38 43 45 52 57 58 63 61 54 54 60 65 64 62 60 53 49 47 43 42 40 38 37 37
28 27 27 32 29 30 29 29 29 28 27 25 22 23 25 39 64 65 70 73 63 42 34 39 45 47 51 53 54 59 64 64 60 64 68 64 61 58 55 53 52 47 45 39 38 38 38
32 32 33 32 31 33 33 33 32 32 30 29 26 27 25 30 50 72 69 82 71 51 39 39 40 43 47 49 54 57 60 65 67 65 66 64 65 60 57 53 51 49 48 45 41 41 40
33 32 36 37 37 40 42 37 39 37 34 31 29 27 23 27 48 78 73 84 80 62 47 46 43 42 43 43 50 55 62 67 66 62 60 59 57 56 55 52 51 49 43 47 45 42 43
32 33 36 39 40 41 43 45 46 43 38 36 32 30 27 22 46 79 79 88 90 74 56 53 50 47 40 41 48 54 58 65 67 64 62 59 57 53 52 53 45 42 48 43 40 40 41
34 36 36 38 40 37 39 41 47 54 47 45 45 39 35 34 28 86 96 83 89 83 68 43 41 42 41 42 50 53 56 59 65 62 60 59 58 52 46 46 44 44 43 43 41 40 40
36 36 38 35 40 40 43 45 48 54 60 61 69 57 52 43 37 79 96 90 82 84 76 50 46 45 44 46 49 53 55 55 57 56 58 57 55 46 45 45 46 45 47 44 41 41 40
36 36 36 35 39 49 47 48 51 63 73 83 81 74 69 47 40 73 93 86 86 83 79 65 48 48 47 44 45 48 52 55 57 58 56 50 45 42 47 48 49 49 49 46 46 45 45
36 36 34 37 46 48 54 55 64 74 77 86 88 75 70 55 35 47 91 98 93 93 90 71 55 46 45 45 45 45 50 51 52 52 52 49 46 48 50 49 48 49 45 47 51 53 51
36 36 36 44 51 58 63 55 71 80 75 86 94 83 68 60 52 51 95 98 98 98 95 70 61 52 49 46 44 50 50 50 49 46 46 46 49 51 52 48 49 51 50 52 52 55 55
36 38 43 49 58 59 56 57 75 75 76 82 92 96 75 53 56 65 88 99 99 95 92 75 64 59 54 50 50 52 55 52 50 50 49 47 47 47 48 50 55 55 55 55 54 58 65
40 45 48 55 57 58 52 60 68 75 80 92 97 98 73 56 53 65 93 98 98 95 76 76 60 63 56 56 56 52 55 58 53 60 58 53 52 51 53 57 56 56 58 59 66 72 51
44 45 48 56 55 54 59 64 67 69 79 95 96 82 48 47 51 79 92 99 97 72 68 64 61 60 59 58 63 59 58 60 56 56 58 58 54 53 52 50 50 56 56 56 59 48 49
42 42 46 55 53 55 57 62 66 66 88 96 98 86 54 45 62 85 96 98 92 76 75 70 68 62 64 58 58 59 60 58 56 58 62 64 58 50 51 52 54 63 74 63 73 60 78
42 39 44 47 56 58 54 59 59 66 79 97 98 80 65 52 58 93 98 98 85 83 76 72 65 55 56 58 56 57 58 53 56 55 53 58 64 50 54 61 63 69 72 83 91 85 78
40 41 40 45 61 55 47 48 62 67 80 96 97 76 83 71 81 88 98 95 90 84 75 71 67 57 53 55 54 56 55 52 53 53 58 61 59 61 68 70 64 76 84 90 87 87 83
37 40 43 41 57 54 40 45 63 76 85 96 91 81 71 83 92 98 98 89 88 83 76 67 63 56 50 52 56 57 56 52 50 57 66 64 68 71 67 61 64 69 77 85 96 88 93
34 38 39 35 56 57 43 53 70 80 87 96 88 70 77 84 97 96 97 91 85 83 78 71 67 59 55 55 57 54 56 56 57 62 62 70 78 78 67 71 77 83 80 84 93 92 82
34 37 36 31 40 56 56 72 89 95 97 96 84 75 84 87 93 88 89 89 88 85 79 71 68 62 55 55 54 58 61 61 64 62 68 69 72 76 69 75 80 94 88 85 91 85 73
33 32 35 32 34 46 52 71 83 96 98 94 88 79 81 88 93 88 85 86 86 84 76 67 61 57 54 57 60 62 65 68 66 70 71 77 84 83 81 82 87 92 90 92 87 74 80
32 33 34 29 28 37 50 66 72 81 90 88 87 86 77 75 83 80 85 86 85 86 80 69 63 64 64 63 64 70 72 70 69 72 79 81 83 89 89 88 89 95 92 85 85 80 73
31 31 32 30 26 33 42 55 66 75 83 86 85 83 85 84 84 85 84 85 85 77 76 72 71 72 75 73 73 77 75 74 75 79 79 85 91 95 87 82 85 93 94 87 86 79 79
26 29 30 30 28 28 37 46 60 68 80 84 84 82 82 84 90 83 78 78 76 72 81 82 81 80 79 78 79 75 74 74 82 78 76 86 95 98 93 90 95 92 87 86 82 81 80
27 23 27 26 28 24 30 39 53 64 76 85 88 85 85 86 87 79 76 75 78 81 82 82 83 80 75 71 68 66 74 78 73 72 77 84 93 95 98 98 85 87 89 92 88 83 81
28 25 23 22 19 20 27 35 44 57 71 85 90 90 91 89 82 81 76 75 79 78 78 81 82 83 81 78 72 79 77 73 70 74 78 84 90 94 96 97 94 87 83 88 88 81 81
23 22 24 22 20 20 21 30 38 48 64 81 86 88 90 89 79 75 74 80 81 81 85 87 90 91 88 83 82 88 83 76 74 70 77 82 88 90 89 91 83 82 81 85 81 77 74
24 22 25 19 16 12 21 26 31 40 55 69 83 87 87 85 83 77 79 82 84 86 82 84 91 90 87 90 90 89 84 76 78 67 69 72 80 81 78 78 80 74 77 77 75 73 74
26 23 25 17 15 12 14 15 24 36 52 64 81 86 89 90 88 81 81 78 82 80 81 80 84 88 89 94 94 92 86 78 78 70 69 75 70 69 69 65 63 69 72 72 72 73 75

GFSGBSN_prec_cthk_015.txt.gz
RH
20 21 23 26 27 26 27 29 29 28 26 22 19 18 17 19 43 58 61 69 79 66 47 33 33 42 53 65 65 55 56 52 48 52 55 48 44 43 42 38 39 40 35 31 32 33 34
21 24 26 30 28 28 30 31 29 28 28 26 24 22 18 17 22 50 62 61 78 73 58 34 36 41 54 63 66 65 59 55 55 59 64 62 56 52 49 46 43 43 41 39 37 34 37
28 32 32 29 30 33 38 37 37 33 33 29 27 24 22 18 17 36 55 64 67 78 59 40 39 45 53 60 60 61 68 62 58 59 72 71 66 61 59 52 49 45 43 38 33 33 37
34 33 32 33 32 41 40 41 44 42 40 37 32 30 24 22 19 25 35 62 64 80 69 46 43 51 54 53 60 56 65 70 65 64 76 78 72 69 63 57 50 46 44 40 34 35 36
31 34 34 34 39 39 38 48 43 42 41 46 43 37 31 24 25 23 36 63 71 78 78 59 47 49 51 46 54 60 65 69 69 70 75 75 74 67 60 55 49 46 44 43 42 40 41
34 35 35 35 33 41 45 47 49 43 48 53 51 42 38 35 29 25 40 69 73 84 83 79 57 52 45 44 50 57 61 71 69 67 68 70 70 65 60 56 51 48 49 44 40 38 41
36 34 34 34 36 40 47 52 58 58 64 63 59 59 63 49 49 38 46 66 99 89 98 83 54 46 49 45 47 52 58 70 72 71 65 69 68 62 56 52 48 47 44 42 38 36 35
28 32 36 38 41 49 53 59 67 67 69 74 76 78 76 67 53 48 49 89 99 83 98 93 63 52 50 47 51 53 59 63 69 71 70 73 68 59 53 49 48 46 43 40 36 34 34
33 37 38 43 44 51 57 68 70 68 80 80 81 84 82 73 60 43 49 93 98 93 97 93 82 53 50 51 49 54 58 60 67 65 65 64 57 50 51 49 47 43 42 41 42 39 36
37 40 43 43 46 56 62 68 62 75 82 82 81 85 92 75 56 53 67 92 98 91 92 96 83 56 51 50 50 52 56 62 62 62 62 61 54 50 45 46 44 43 40 41 42 45 45
38 46 43 48 48 59 64 61 58 72 79 78 79 83 91 81 64 59 77 90 97 97 97 93 90 68 53 48 50 51 53 57 58 57 59 56 50 48 47 41 44 45 44 45 45 50 48
42 44 39 44 49 59 59 64 61 71 73 78 91 98 96 85 61 52 75 98 99 99 94 92 85 75 53 51 51 54 54 52 53 52 52 48 48 44 44 43 44 46 47 50 52 59 60
40 43 39 41 51 58 60 59 59 64 63 89 94 95 82 78 62 67 89 96 98 98 81 90 80 76 60 53 56 54 57 56 52 61 56 49 46 44 43 47 49 53 59 59 67 71 51
36 42 38 38 55 65 60 54 56 56 67 81 91 96 72 62 55 72 92 90 97 83 73 76 83 72 64 55 54 55 56 56 50 48 50 56 58 48 51 51 51 53 54 52 50 42 38
36 41 38 43 51 58 54 44 52 60 76 80 91 90 66 52 53 72 87 90 98 80 71 77 73 69 69 61 58 54 52 52 47 49 56 54 55 48 50 46 49 60 62 53 64 57 65
37 41 38 35 47 59 55 49 68 65 76 80 91 88 73 58 55 70 76 97 93 80 71 73 71 63 65 60 62 58 55 51 52 51 51 55 59 48 50 53 53 55 60 76 83 78 64
39 35 38 35 39 45 60 59 77 80 78 76 84 98 75 66 77 87 92 98 89 84 82 74 65 61 56 56 58 59 57 54 52 53 53 53 53 57 57 56 53 67 72 82 77 83 82
39 34 37 34 34 44 50 73 90 89 86 82 88 89 68 53 95 96 98 98 88 87 84 81 72 58 53 52 54 53 55 50 49 51 54 55 58 62 57 56 61 63 68 75 90 80 86
39 35 32 33 31 41 44 75 88 93 92 75 78 63 64 82 88 88 97 95 90 91 88 81 72 64 53 52 55 51 51 51 48 52 56 62 64 69 71 68 65 67 71 76 85 91 84
38 35 33 28 26 31 46 66 83 96 97 68 67 67 71 87 87 84 96 88 92 90 85 78 70 64 57 55 52 53 54 54 53 56 64 63 65 71 65 70 71 88 84 86 94 96 79
37 38 31 26 26 34 42 53 75 90 84 62 65 75 79 84 86 92 90 87 90 87 82 74 71 67 62 56 54 54 55 57 61 64 63 67 83 76 75 76 82 87 87 88 96 92 90
37 31 36 23 26 29 40 44 62 74 76 65 71 75 76 75 74 80 83 85 87 86 77 70 64 60 62 60 61 61 59 62 63 64 69 79 83 84 86 80 84 87 82 85 88 86 85
37 31 29 23 22 26 35 39 49 60 68 66 72 70 77 78 76 76 78 80 83 78 76 69 64 62 63 64 64 63 65 67 69 71 78 83 89 93 85 77 79 87 90 90 87 86 88
37 33 29 25 15 18 28 37 43 49 64 70 65 65 69 66 66 71 72 74 77 78 73 73 70 71 71 68 68 67 69 69 70 76 81 86 94 96 95 85 90 83 85 88 88 85 85
37 34 31 28 17 15 21 31 39 44 61 68 70 67 71 69 71 72 72 74 74 71 73 75 77 76 73 69 67 62 67 70 69 76 76 86 91 97 97 87 76 84 82 86 87 83 80
36 36 29 27 16 10 14 23 31 40 50 66 73 74 70 79 72 70 69 68 76 73 79 76 76 78 76 73 70 66 69 68 73 81 80 80 84 94 97 97 89 84 80 79 82 80 77
38 36 35 25 19 14 9 9 17 30 43 52 72 77 74 75 75 74 70 68 71 75 76 80 83 87 86 82 78 75 76 74 75 74 77 83 85 91 93 95 84 77 77 77 80 74 78
41 37 35 34 22 18 15 9 16 21 37 50 62 78 79 78 74 73 72 73 76 75 79 84 87 89 87 84 81 80 81 78 76 72 72 69 74 79 81 89 84 70 72 78 76 75 76
42 41 38 37 32 20 19 21 18 16 24 47 58 69 79 84 79 76 75 76 81 80 86 84 87 86 89 88 92 90 91 80 77 80 71 70 63 70 69 69 67 69 70 70 72 70 72

GFSGBSN_prec_cthk_018.txt.gz
RH
21 23 27 30 25 27 27 31 32 31 30 30 29 30 26 23 20 19 24 42 48 57 90 66 42 36 48 58 61 57 57 55 54 55 42 40 37 36 37 34 34 36 34 31 29 27 32
27 33 35 34 33 31 36 38 39 40 37 37 32 32 32 31 26 20 19 38 59 55 75 78 49 41 47 59 63 65 65 58 60 64 59 54 47 43 45 43 45 43 39 38 33 31 30
34 34 35 35 35 39 39 41 42 50 50 49 41 39 35 34 34 31 22 33 51 63 71 82 65 46 49 53 59 62 65 63 64 69 65 66 63 53 48 49 49 47 46 42 36 30 31
34 35 36 35 42 37 38 43 47 52 60 57 50 52 52 37 32 27 25 27 48 70 68 87 78 57 53 48 54 58 65 68 61 73 75 80 72 67 60 55 52 47 47 46 31 30 30
34 37 34 34 37 40 39 47 51 62 64 67 62 59 60 47 39 33 29 26 42 64 74 83 83 59 57 45 50 56 59 67 73 73 86 88 80 72 65 58 56 51 50 47 42 37 35
36 34 36 38 43 40 46 52 63 65 66 64 61 63 62 59 51 44 40 35 40 63 79 98 81 71 50 44 43 52 59 70 75 78 81 85 79 72 64 63 60 52 54 49 45 44 39
34 38 39 43 40 43 48 60 63 69 68 63 77 73 75 79 70 57 56 39 43 64 85 76 70 70 47 43 43 49 59 70 75 81 78 76 74 69 63 60 57 54 54 52 48 42 39
39 39 47 43 46 47 54 62 68 64 65 70 80 82 83 85 75 66 58 48 72 80 89 86 89 76 56 46 46 49 56 63 72 79 76 76 74 66 62 58 56 55 55 54 47 40 37
41 42 46 41 41 48 52 62 56 58 66 74 79 80 80 90 81 65 55 54 75 92 84 90 86 83 60 48 48 49 53 60 70 77 80 76 70 64 62 59 55 54 52 49 45 40 35
42 43 45 40 35 48 56 59 58 54 70 72 77 82 86 92 84 77 53 84 98 93 89 93 97 88 63 54 51 56 59 61 71 76 76 77 69 62 57 58 50 50 45 45 43 43 45
41 44 43 39 44 49 60 61 57 57 61 62 76 79 93 98 81 67 54 97 98 98 99 89 96 89 66 56 53 58 61 65 67 68 70 68 64 62 60 49 45 46 45 44 44 46 48
38 44 43 38 43 47 61 59 62 55 56 61 75 85 91 99 87 56 58 90 98 98 97 94 95 91 74 57 56 56 61 61 63 65 65 65 57 53 50 44 43 46 46 46 47 50 59
36 45 44 36 38 48 54 57 60 61 65 77 87 94 87 83 77 58 76 94 98 98 90 92 87 81 72 56 58 57 58 58 59 69 68 59 53 48 44 44 45 49 52 65 69 68 56
36 44 43 38 38 46 47 65 59 78 77 80 97 90 78 74 71 63 75 98 96 96 88 75 79 87 74 56 58 59 58 58 54 51 56 58 57 46 44 44 49 54 57 63 61 61 50
34 42 43 37 36 43 51 57 75 85 81 78 97 87 73 78 63 63 78 90 98 96 82 80 84 88 81 63 54 59 59 56 51 48 57 58 57 48 49 49 53 60 63 49 61 50 60
40 40 36 36 36 43 46 64 86 94 89 88 88 85 74 79 64 77 89 92 99 86 80 74 80 76 76 66 57 59 58 51 49 47 48 55 60 50 53 51 51 55 50 66 70 76 65
40 44 37 38 32 36 44 70 93 95 90 82 83 88 67 67 82 86 92 98 97 87 82 79 65 68 60 59 59 58 53 50 50 50 51 54 55 60 59 58 54 58 61 64 71 75 81
39 45 39 34 30 33 45 65 87 88 82 74 81 66 74 82 83 90 96 98 94 87 78 72 67 60 60 56 62 61 59 58 53 56 57 58 60 68 62 52 54 59 66 68 79 75 79
38 42 41 31 27 31 40 55 75 72 58 65 49 60 81 85 93 91 98 91 85 83 82 72 66 60 53 57 62 59 59 54 55 55 55 56 64 70 72 65 64 66 66 69 77 81 84
40 36 38 33 27 29 38 48 66 70 54 55 56 72 80 88 91 92 96 92 96 89 84 78 73 64 57 58 58 58 57 56 51 53 54 57 63 66 71 73 71 83 77 77 81 90 80
40 34 32 30 27 28 33 41 54 66 52 53 69 72 74 78 80 84 90 94 89 82 80 75 73 68 60 60 57 57 56 57 55 56 60 63 73 71 73 68 70 75 80 84 91 89 91
39 36 33 30 22 20 26 37 45 55 60 57 61 69 66 65 69 74 77 87 86 80 79 72 68 68 68 62 61 58 55 57 59 64 63 63 81 82 81 77 77 84 82 79 82 88 87
41 37 34 32 25 21 20 30 37 49 57 61 60 64 68 60 65 68 69 73 77 75 75 70 66 63 68 69 67 64 62 62 64 67 69 80 86 92 88 75 77 85 82 88 87 86 87
42 38 37 34 23 19 19 15 28 41 56 60 64 63 64 65 61 61 63 64 68 71 70 71 68 63 70 65 66 66 68 63 68 69 71 84 91 96 95 86 89 82 81 83 85 84 84
44 40 38 36 28 21 20 9 12 31 46 56 62 62 62 64 59 58 62 62 66 72 72 70 72 71 69 66 66 64 65 64 67 72 74 82 91 95 97 95 77 82 87 83 84 84 81
46 43 40 39 37 29 22 22 9 11 34 47 63 66 66 67 58 61 62 65 69 70 70 70 71 69 71 70 69 65 68 77 76 79 79 88 86 91 94 95 89 81 79 80 80 87 78
47 45 43 41 38 37 31 29 23 13 10 33 54 66 69 69 68 69 62 66 66 67 69 74 76 79 79 79 75 70 70 67 72 81 87 89 88 87 92 94 81 74 75 79 91 79 74
50 48 46 43 40 37 33 32 29 22 15 15 38 60 70 71 72 74 74 70 67 67 69 77 81 85 85 84 80 77 77 74 75 73 82 80 82 82 86 87 83 69 73 76 73 72 73
54 50 48 45 42 40 35 32 32 31 20 18 20 48 63 77 74 78 77 73 73 74 73 77 85 84 85 84 85 84 85 82 78 81 75 77 71 71 72 72 65 66 69 69 67 69 69

GFSGBSN_prec_cthk_021.txt.gz
RH
31 35 34 35 35 37 43 44 41 40 45 47 49 46 40 40 36 33 33 29 28 42 60 68 84 67 48 47 43 54 57 52 51 41 31 32 39 40 40 34 34 36 34 35 31 29 32
31 34 37 37 38 39 37 38 37 46 49 60 63 59 50 43 41 39 35 28 29 42 64 68 82 79 52 56 46 54 56 62 66 56 46 41 37 37 39 38 39 37 36 36 34 32 31
33 38 38 35 39 39 42 39 42 49 59 62 67 69 64 58 51 48 35 29 23 35 61 71 79 85 63 45 55 55 66 60 61 64 59 57 57 47 44 43 44 44 43 40 34 29 30
40 36 35 39 42 42 40 36 46 57 62 71 71 70 63 61 56 48 39 33 24 30 67 76 80 83 69 44 51 56 61 62 65 65 70 73 68 57 52 49 45 45 46 48 32 31 30
34 38 38 43 45 41 43 48 53 60 63 66 72 65 71 67 65 54 44 34 29 29 71 83 84 73 74 54 48 55 60 67 65 65 81 77 82 73 66 59 55 50 52 48 43 35 36
38 41 41 45 40 40 38 51 53 57 63 55 63 71 70 68 73 70 53 47 33 31 67 85 86 85 75 60 56 53 58 65 73 74 76 89 91 84 78 68 65 55 54 47 45 41 43
37 40 41 45 40 36 41 52 47 57 54 57 68 77 77 75 77 72 62 51 37 39 83 89 72 73 68 58 57 55 58 66 74 74 76 89 85 94 86 75 64 59 55 51 47 43 40
43 42 42 45 40 38 45 51 54 57 57 63 68 79 85 81 80 78 67 60 48 59 96 93 89 80 76 60 58 57 61 65 68 76 72 75 82 87 76 70 67 62 57 54 49 46 43
45 42 42 44 39 40 46 55 60 57 57 57 57 66 73 84 88 84 75 62 55 68 98 97 88 91 75 62 52 60 57 60 68 73 71 76 70 69 73 70 66 64 61 58 54 46 41
44 43 44 44 39 43 46 49 62 64 65 59 60 71 78 82 96 85 71 59 73 87 97 85 85 79 80 67 57 59 62 60 64 69 73 74 71 69 71 70 68 65 56 52 49 47 48
45 45 42 45 37 44 47 50 59 65 64 71 71 88 93 91 91 92 63 84 89 94 98 99 83 87 82 71 55 62 63 58 61 63 67 73 72 73 73 68 65 62 53 49 47 47 47
42 45 41 43 38 42 48 53 69 65 77 78 78 89 92 89 91 78 65 91 94 97 97 98 86 85 79 72 58 63 66 57 58 61 67 68 68 74 73 66 59 54 51 47 45 48 56
43 45 41 42 39 43 49 62 75 88 97 87 82 92 82 78 81 58 81 78 92 97 93 85 84 86 83 74 64 63 60 60 63 69 74 71 71 65 63 60 54 52 50 60 60 62 54
44 44 39 37 39 41 42 66 77 87 89 91 80 75 83 68 71 63 79 85 97 97 86 79 82 84 79 71 71 62 60 61 58 58 69 74 73 64 56 53 51 52 48 59 64 65 56
46 44 41 38 39 34 49 68 75 84 80 72 64 72 72 64 65 73 93 96 96 98 87 80 87 84 84 73 60 61 58 54 54 52 58 64 61 53 52 48 49 54 60 53 60 53 62
45 41 41 35 31 33 46 60 70 73 72 63 53 62 70 81 84 92 97 97 99 91 86 80 84 74 76 72 58 57 57 51 50 48 51 54 60 53 55 53 52 53 49 61 63 68 67
44 40 34 36 31 32 44 60 51 54 63 54 48 68 78 87 91 92 97 99 97 88 85 79 76 78 75 72 60 56 56 50 52 49 52 52 55 63 60 59 55 57 60 57 59 67 74
44 40 30 32 31 30 40 50 39 43 46 52 55 73 81 79 85 92 98 99 95 91 80 74 68 69 75 72 65 52 55 51 50 52 53 55 61 70 61 54 52 52 57 62 71 66 72
48 42 32 29 24 26 34 41 39 49 51 55 63 74 74 79 85 96 92 86 89 84 80 74 68 66 63 59 58 56 58 54 54 57 58 58 64 68 64 59 56 63 66 67 69 75 75
49 44 34 29 23 21 33 36 41 52 52 56 62 68 71 76 80 86 86 88 84 79 77 70 67 59 63 62 60 64 64 59 59 59 56 55 62 64 65 65 68 75 71 73 79 86 73
52 46 33 31 27 18 26 32 38 45 53 55 59 63 67 72 75 78 78 77 74 73 70 70 67 65 58 60 58 61 59 58 56 58 56 58 69 68 63 65 70 71 75 78 82 80 89
54 50 36 30 24 18 10 27 33 47 45 46 54 60 62 65 68 73 73 72 70 69 70 69 70 66 64 59 58 56 55 56 55 56 61 65 71 77 77 73 78 85 81 80 82 83 85
56 51 45 35 25 21 13 10 27 40 50 52 53 58 62 61 62 64 64 67 65 66 65 65 62 63 73 66 59 58 55 55 57 62 65 69 77 85 88 81 83 89 83 82 84 86 85
56 53 48 42 36 26 20 13 10 25 41 53 56 54 59 61 58 59 61 60 62 65 60 59 57 57 62 66 64 63 63 65 65 64 67 78 83 93 95 88 89 82 79 82 84 82 83
55 56 52 46 42 40 28 21 17 8 21 42 56 60 59 62 64 56 55 60 62 64 64 62 62 62 62 61 68 72 73 69 63 65 71 74 88 92 96 96 81 79 83 85 82 77 76
60 59 55 43 45 45 43 35 25 23 10 16 43 56 62 60 58 63 60 56 65 67 69 68 67 64 65 67 68 68 67 73 73 74 73 79 88 91 92 97 92 78 79 78 79 82 72
67 60 60 46 45 47 45 45 43 35 23 14 21 35 57 64 62 62 66 65 65 65 70 68 70 69 71 74 74 70 67 65 75 77 82 84 92 91 89 94 82 74 76 78 85 71 71
70 63 68 51 47 47 46 45 43 43 41 25 20 23 38 56 61 66 70 72 71 68 71 73 74 77 81 81 77 73 71 70 70 72 83 85 89 89 86 89 83 69 72 76 70 68 69
76 67 71 57 53 53 50 45 46 41 38 36 25 27 30 36 47 67 70 74 72 77 78 76 78 79 80 82 78 78 77 77 76 79 75 81 79 82 75 71 66 67 68 69 68 66 67

GFSGBSN_prec_cthk_024.txt.gz
RH
29 30 39 34 39 42 40 38 40 38 40 49 56 67 71 66 62 52 43 38 32 26 31 52 62 83 80 58 46 54 45 44 44 41 34 33 38 38 38 34 33 34 32 31 26 25 27
33 34 33 36 42 45 44 41 43 45 47 51 58 66 69 67 65 66 59 45 37 27 27 51 64 89 75 67 46 56 59 57 50 42 38 35 39 38 37 35 36 37 33 33 30 30 30
33 33 36 42 52 49 39 40 39 51 51 57 59 65 73 65 65 65 60 48 38 31 24 39 72 80 68 81 60 58 63 66 67 65 47 36 44 45 38 38 39 40 41 39 33 30 31
33 36 40 45 47 46 37 39 49 48 50 56 56 58 63 67 67 65 61 48 35 27 21 45 81 99 75 80 69 70 63 68 73 74 66 47 51 48 42 44 44 43 45 46 34 33 30
35 41 45 46 47 45 40 44 47 48 57 56 55 60 70 73 65 64 66 51 39 28 24 53 80 90 78 79 67 68 67 70 73 71 71 69 71 64 55 49 50 48 51 47 39 32 32
39 45 47 48 48 43 40 48 55 61 62 64 61 63 71 73 73 72 63 56 43 29 26 52 93 90 71 71 64 69 74 71 72 71 85 88 83 77 68 62 61 50 51 45 43 40 39
40 45 48 51 48 44 46 48 56 63 72 65 65 66 74 80 80 75 72 56 51 33 41 71 81 83 74 78 62 68 76 75 80 83 89 93 92 85 80 72 62 58 54 53 45 42 41
43 48 49 50 47 39 46 48 53 65 67 71 64 59 67 74 80 89 80 59 54 49 66 86 88 88 73 76 69 69 71 71 82 90 85 85 93 91 93 89 78 68 59 56 49 47 45
47 47 51 50 43 41 48 51 54 72 70 60 71 75 76 87 90 95 80 64 53 49 73 98 96 93 86 72 65 75 73 75 81 82 77 82 75 81 85 83 79 70 62 58 56 52 47
49 49 51 42 42 42 49 53 61 75 71 81 80 84 89 93 90 98 75 64 51 54 94 88 91 86 81 75 65 73 76 71 79 79 74 76 70 72 78 78 74 66 59 56 55 52 56
51 47 49 40 40 41 52 60 68 75 86 94 98 89 90 96 85 98 69 53 55 85 97 98 97 85 92 70 62 79 75 66 70 74 72 77 71 68 71 69 66 65 59 56 53 54 50
52 46 48 39 35 41 44 58 67 79 84 92 95 93 92 87 84 90 55 59 68 96 97 98 95 93 89 74 68 73 73 62 67 69 68 67 67 69 68 67 64 63 61 58 56 53 56
53 46 47 38 34 43 50 54 60 71 74 74 77 81 79 78 80 60 61 73 91 97 98 95 85 85 81 80 72 73 67 65 67 73 78 66 67 67 68 70 65 60 61 62 58 64 50
54 45 42 37 39 43 42 46 53 62 61 59 63 72 64 59 65 75 72 90 94 98 93 78 75 77 86 81 72 70 68 67 61 60 68 72 73 69 66 66 63 59 55 55 50 62 55
53 46 39 29 40 37 36 42 50 59 53 65 61 62 67 66 82 87 88 93 95 96 92 85 81 86 85 78 73 68 66 63 62 58 66 71 68 63 61 58 53 57 58 49 56 56 62
52 47 39 26 36 33 34 37 44 52 57 59 67 74 73 74 85 89 89 92 91 85 77 74 78 82 82 78 75 65 63 55 55 55 53 54 64 57 55 51 51 51 51 62 63 65 62
50 48 39 26 31 32 33 33 39 46 48 48 64 70 77 81 83 91 92 93 94 82 75 70 75 75 72 71 65 59 57 51 47 48 49 49 52 57 53 55 55 58 62 56 56 61 70
50 44 36 25 26 31 29 31 40 42 45 49 51 55 63 73 80 85 87 85 84 83 77 73 70 69 69 72 59 54 55 51 49 47 50 49 53 62 59 54 54 55 57 56 67 63 77
56 46 36 26 17 24 28 33 40 41 42 49 54 60 59 59 70 77 82 81 76 71 66 63 62 66 71 72 65 52 52 50 50 51 50 48 55 64 59 57 55 58 57 62 67 73 83
62 49 38 30 18 16 23 29 39 43 44 47 51 57 59 66 65 67 71 76 71 67 65 56 60 62 65 60 54 55 55 54 54 54 53 53 59 57 63 60 61 66 68 70 75 86 78
62 56 41 34 25 15 17 24 34 40 42 43 47 56 62 65 63 66 68 66 66 67 65 60 61 60 62 60 60 63 59 58 58 56 55 54 60 65 64 63 67 69 71 75 79 73 80
64 62 49 38 33 22 14 14 26 40 39 39 46 52 55 60 61 63 61 62 65 65 63 64 63 62 59 63 58 60 57 57 57 58 57 59 69 66 69 67 71 77 77 79 77 75 75
76 69 56 48 41 34 22 15 11 25 40 44 46 51 56 54 56 57 57 58 59 60 62 63 63 67 67 63 58 56 53 52 54 56 61 65 68 74 77 76 81 84 80 80 77 77 78
81 75 62 54 50 42 36 24 18 12 21 45 50 52 53 55 57 57 57 58 59 62 58 58 56 58 66 68 64 60 59 57 59 61 62 72 73 80 89 86 88 78 76 79 78 76 77
82 79 69 57 55 49 47 38 30 21 15 18 39 53 58 53 58 57 58 56 58 59 58 60 60 58 58 62 69 73 72 66 67 66 67 69 76 87 90 92 81 76 81 83 82 75 71
87 85 76 60 56 53 56 50 44 38 29 20 25 27 50 59 54 60 58 56 59 61 64 62 63 63 61 65 68 69 74 68 77 78 68 74 75 93 92 95 93 79 81 78 79 86 69
89 85 79 65 56 52 51 56 55 54 49 35 28 25 30 42 52 61 60 59 58 60 62 65 65 66 67 71 73 72 70 72 80 77 77 80 82 92 90 91 83 74 78 80 84 73 69
92 85 79 73 63 61 54 56 55 60 60 56 45 37 33 34 27 49 61 65 64 62 67 65 67 70 74 79 78 75 72 70 70 69 74 79 85 92 94 87 88 74 78 79 72 70 68
96 93 84 77 78 70 60 58 56 57 54 53 53 51 47 42 25 26 49 61 67 72 73 74 69 70 70 77 78 79 78 77 76 76 72 82 78 84 82 75 66 69 69 68 71 68 67

GFSGBSN_prec_cthk_027.txt.gz
RH
43 39 37 38 43 47 54 50 40 42 39 47 52 56 58 61 68 75 74 68 56 46 35 25 39 67 86 78 69 62 56 37 40 42 38 43 41 36 36 35 33 36 36 33 30 28 28
45 42 42 42 49 49 53 47 37 38 48 48 57 62 58 56 59 63 63 69 64 48 40 29 38 66 71 73 84 59 67 54 46 50 46 44 43 38 35 33 35 34 31 31 30 28 27
44 44 48 45 51 52 47 43 43 47 47 57 64 69 59 54 60 65 66 64 60 49 41 31 37 61 90 86 77 64 67 66 64 58 45 40 41 44 40 36 36 35 37 34 28 27 29
45 47 49 49 52 53 47 43 53 55 63 63 66 62 62 65 65 64 66 67 59 51 39 32 46 71 85 94 79 71 71 80 79 67 48 45 49 50 44 41 41 42 41 44 33 31 29
47 49 51 49 55 50 45 46 56 59 66 72 74 71 72 72 69 73 70 67 58 52 38 32 50 72 84 81 81 76 79 89 95 92 82 50 57 58 49 49 50 48 50 45 36 32 33
47 51 54 52 53 46 45 52 60 63 71 73 75 77 72 74 81 82 72 75 54 47 36 31 60 69 70 77 84 81 79 86 93 93 93 78 71 70 57 55 54 51 46 42 40 34 36
51 54 55 53 51 44 47 55 66 65 72 82 79 68 67 68 73 81 82 80 58 50 40 39 70 88 93 93 75 85 81 79 82 92 87 89 86 74 64 59 51 47 50 48 41 36 36
54 54 55 51 43 45 51 54 62 73 83 87 76 78 79 77 82 89 90 79 60 57 39 65 79 97 91 85 82 84 82 84 90 90 88 93 88 80 77 71 67 61 59 55 48 43 41
56 55 55 51 39 47 52 41 52 70 84 90 92 90 83 82 91 91 93 68 55 46 55 76 79 83 87 81 74 82 84 88 87 91 88 96 93 96 94 87 79 71 66 61 55 50 46
60 58 53 49 40 44 42 51 58 68 80 88 93 99 91 87 85 94 95 61 51 50 63 87 93 97 89 83 67 76 84 85 89 95 91 88 88 92 94 92 83 79 69 63 58 54 56
59 59 50 46 42 46 41 50 55 67 62 59 66 75 91 84 84 93 76 56 51 70 91 94 83 85 78 75 66 80 85 80 87 93 86 90 82 85 93 86 83 78 71 64 58 56 52
62 57 47 40 39 41 42 49 58 63 54 53 58 63 68 67 72 72 51 52 72 96 97 92 93 95 86 75 71 83 89 81 91 90 82 77 72 76 73 73 73 69 66 62 60 54 59
61 57 47 34 38 35 40 45 55 65 57 45 56 51 55 54 43 45 47 70 94 96 94 97 93 83 83 77 73 84 83 77 83 86 90 76 72 69 68 69 67 64 64 64 54 61 52
63 56 47 33 31 36 38 41 50 57 61 51 64 61 47 39 41 52 72 84 94 89 88 89 80 81 89 78 77 84 83 72 67 66 75 73 76 67 67 69 71 68 65 61 44 58 54
65 55 46 32 27 35 38 40 41 51 55 49 44 52 64 61 62 70 78 94 92 98 91 91 85 92 89 80 78 84 70 66 60 59 66 68 68 66 66 68 66 69 69 57 58 55 58
72 55 47 29 18 26 35 34 38 43 51 52 50 53 58 62 62 70 74 82 85 86 81 75 76 74 81 84 76 82 67 61 60 60 62 64 72 67 69 67 65 62 54 59 58 49 56
72 57 51 34 19 22 30 34 36 39 42 47 53 55 65 63 66 71 75 76 76 70 61 59 73 74 77 74 67 63 62 52 53 58 59 56 61 66 64 62 60 57 58 55 55 58 61
65 62 49 35 22 18 30 34 37 37 40 46 50 55 59 65 66 70 72 73 68 66 65 65 67 69 72 72 66 56 56 53 48 54 57 55 58 65 60 56 54 53 55 54 59 57 68
63 75 54 39 24 19 23 31 37 39 40 43 49 53 55 59 67 69 70 68 66 64 66 64 64 65 66 68 60 51 49 44 50 48 53 52 55 62 59 57 56 56 54 55 57 63 71
67 81 65 44 32 18 18 26 36 38 41 44 49 54 53 58 65 68 72 69 66 63 59 59 60 64 68 66 58 54 52 51 49 51 52 50 54 56 60 57 58 60 57 60 66 78 76
65 84 82 52 40 27 16 17 24 37 38 39 44 54 59 61 58 62 65 65 67 67 59 56 63 62 66 65 60 57 53 53 54 54 55 54 61 63 60 59 60 61 63 67 73 73 80
61 71 92 75 47 38 26 16 13 25 41 38 41 48 57 61 61 60 60 62 63 63 64 59 60 61 63 62 60 61 58 57 56 56 56 58 68 65 64 57 61 68 65 70 74 77 74
64 67 87 90 63 49 38 25 19 12 26 42 46 45 50 56 60 60 59 59 59 60 62 62 62 65 66 65 59 56 55 56 55 56 59 61 66 68 67 66 73 80 74 75 77 73 72
66 66 81 94 74 60 50 34 29 22 17 26 43 49 48 50 54 58 61 61 60 62 60 62 61 62 69 69 64 63 60 57 57 57 58 66 69 70 72 78 87 73 75 77 78 74 73
64 70 86 93 89 70 58 46 39 37 30 23 29 35 47 48 47 53 56 61 60 60 61 61 61 61 61 64 70 72 69 63 62 61 64 63 69 74 79 88 81 74 79 83 82 76 74
78 84 90 91 92 80 59 55 50 47 44 38 30 33 38 38 45 52 57 60 60 59 61 63 63 64 62 65 69 73 77 68 71 72 71 68 70 80 89 91 93 78 82 80 79 85 76
83 93 93 92 93 84 68 60 57 57 56 50 47 40 37 43 36 43 54 60 61 59 60 63 68 67 67 71 73 73 70 69 76 74 78 79 76 80 89 89 80 74 76 83 87 80 74
91 91 95 93 90 89 82 69 67 68 66 67 59 55 52 47 37 35 45 55 60 64 61 61 68 70 74 76 76 74 73 71 74 72 77 77 77 81 88 93 84 74 82 87 80 74 72
96 92 95 96 95 90 89 81 73 69 69 72 70 70 68 68 54 45 36 37 52 60 70 70 67 68 66 72 77 79 78 76 73 75 72 76 71 82 81 81 70 73 78 76 72 71 68

GFSGBSN_prec_cthk_030.txt.gz
RH
52 44 45 47 52 52 58 55 50 45 50 56 52 58 64 75 66 67 61 59 63 74 76 53 36 45 70 87 94 88 73 52 46 46 44 47 42 42 44 43 42 43 42 39 37 37 36
46 48 49 52 54 57 58 51 50 53 58 59 61 68 73 82 63 57 62 65 68 69 75 63 46 36 68 72 73 86 84 58 50 48 44 48 48 41 40 38 39 39 40 37 35 35 33
50 52 52 53 55 60 55 48 53 52 58 65 73 78 74 69 71 70 69 68 69 73 66 62 47 39 63 71 81 86 73 66 56 49 49 46 47 43 40 39 36 37 36 32 30 32 32
55 55 57 57 55 59 50 50 54 56 60 70 81 84 86 75 75 78 77 75 73 70 64 58 46 41 60 67 67 78 77 81 72 67 55 52 49 50 44 42 41 40 39 42 33 30 28
60 59 56 61 58 50 50 50 49 54 66 78 82 94 88 82 76 82 83 79 73 66 63 56 42 54 65 53 68 83 78 86 86 92 80 63 54 54 51 48 50 47 50 44 37 33 33
63 59 57 62 56 47 50 47 45 54 68 78 87 87 78 70 71 76 76 82 79 61 54 49 44 71 65 73 93 83 91 91 93 92 83 73 58 64 57 52 53 49 47 42 40 32 33
65 61 61 59 51 49 43 44 49 61 74 84 97 92 78 72 73 81 85 86 76 60 57 46 47 75 80 94 96 92 98 99 99 98 88 78 70 61 57 55 49 49 48 45 38 35 35
66 63 60 57 50 44 40 44 49 63 70 72 85 93 95 84 86 88 90 91 67 63 49 58 58 69 75 84 91 86 93 98 95 98 95 94 86 69 68 58 54 53 53 49 44 40 39
65 60 53 53 52 42 40 44 47 53 57 61 68 82 90 88 87 87 92 76 57 53 51 78 71 79 71 71 85 91 88 90 94 94 96 93 88 89 74 71 69 63 60 54 52 49 44
66 59 52 50 48 39 37 42 42 53 52 57 57 69 88 80 86 87 76 53 49 62 86 83 95 86 95 92 87 91 92 90 94 96 95 96 91 88 89 84 74 71 64 61 57 54 54
63 58 54 47 47 35 36 40 41 47 49 47 50 56 60 70 71 71 50 44 59 88 96 95 95 90 89 84 83 93 93 88 91 92 97 93 98 98 96 96 87 80 72 68 66 61 54
59 56 50 45 40 37 36 39 37 44 51 44 46 49 47 51 50 41 40 55 83 91 95 94 90 89 79 75 71 88 94 94 93 93 92 88 90 91 93 93 90 85 77 76 74 67 62
47 55 45 47 35 37 38 37 37 39 48 56 47 48 48 41 41 39 54 62 75 84 94 94 91 79 78 76 69 79 88 88 96 97 97 87 86 81 83 86 85 77 79 81 62 64 56
52 63 41 45 29 29 32 36 38 36 41 46 56 50 57 56 71 81 72 73 87 81 82 83 84 78 75 77 78 83 86 87 82 88 91 87 84 74 75 75 73 69 67 69 50 56 53
57 60 49 41 31 21 30 36 38 40 44 49 52 56 60 66 65 67 70 77 86 86 80 79 81 82 82 74 76 84 89 81 78 74 74 77 76 68 65 65 64 69 72 66 68 64 62
57 54 61 36 36 22 25 34 38 40 43 48 49 51 55 60 63 65 71 73 77 72 69 67 73 76 79 76 75 79 78 68 63 62 58 62 70 64 64 64 65 65 66 70 66 52 50
52 51 66 48 38 27 20 29 37 38 40 46 52 55 62 59 59 62 69 73 70 66 68 66 69 71 73 76 68 73 67 60 54 56 55 60 61 69 66 70 72 72 72 63 56 56 56
51 54 62 66 43 33 19 21 34 39 40 44 53 60 60 62 65 62 66 68 61 61 61 63 66 67 73 67 63 66 65 56 51 50 60 58 66 71 66 64 63 59 58 54 56 55 64
56 59 62 78 60 37 26 19 24 36 40 44 47 54 58 58 69 70 66 65 66 65 66 65 65 64 69 69 63 54 54 50 47 51 57 57 62 67 63 59 58 59 57 56 54 56 63
61 62 66 70 88 48 32 19 18 27 37 40 46 54 54 58 66 68 71 70 67 64 61 61 60 65 66 67 59 53 50 50 48 51 55 55 58 56 58 56 59 62 58 57 58 67 65
65 63 72 72 80 77 44 28 17 17 33 36 39 52 58 61 59 62 65 68 66 66 63 63 65 64 67 70 64 58 52 53 54 54 57 58 62 60 58 58 60 59 59 60 63 64 74
65 60 58 65 70 90 58 39 25 15 22 38 43 43 53 60 60 58 58 63 66 65 66 58 60 65 66 64 60 61 53 53 56 58 60 60 69 68 65 58 60 63 61 65 69 72 74
63 61 60 64 68 84 76 51 42 25 17 28 42 49 47 52 57 57 59 60 64 64 63 64 62 66 69 69 63 60 59 59 58 59 61 62 68 68 67 62 63 69 67 68 71 73 71
65 59 57 65 77 84 90 65 53 42 29 25 28 39 50 50 53 56 58 60 59 62 62 64 65 66 69 67 65 62 61 61 61 61 61 66 68 70 70 64 75 66 74 75 80 76 72
65 63 64 72 89 93 93 73 62 47 42 36 29 35 38 45 49 49 55 59 59 58 62 64 65 64 66 69 72 75 71 67 64 62 63 63 69 72 70 71 70 70 79 82 84 78 73
64 62 74 80 87 95 95 92 67 55 48 45 42 37 41 46 41 44 55 59 62 61 60 61 64 65 65 69 71 75 79 70 73 74 68 66 66 70 75 77 84 76 83 82 84 84 77
68 75 78 82 88 95 97 97 86 71 56 49 52 50 46 50 45 47 44 59 64 65 62 62 64 65 68 71 73 75 73 68 76 74 74 76 77 74 74 76 77 71 79 85 91 82 79
80 80 83 89 96 92 94 97 92 93 82 67 65 64 62 59 52 50 49 49 58 63 68 64 66 67 69 74 76 74 73 71 72 69 73 72 77 76 72 78 85 68 81 89 86 81 81
86 87 96 97 98 96 97 97 97 96 85 78 82 81 79 80 72 67 61 55 45 58 66 68 67 60 63 69 71 76 78 76 73 77 71 75 67 73 68 67 67 74 79 84 84 84 80

GFSGBSN_prec_cthk_033.txt.gz
RH
59 58 58 61 66 58 63 60 56 49 50 52 61 73 81 82 86 87 80 66 61 57 50 56 69 62 34 60 77 71 91 87 56 54 53 49 49 48 48 52 56 54 50 47 46 46 44
55 57 62 62 64 61 59 57 47 50 51 60 72 83 88 95 92 82 68 68 64 58 61 72 76 69 39 59 78 83 92 90 53 59 61 55 46 47 48 47 48 52 50 45 41 43 42
52 58 59 56 58 56 56 48 44 49 50 61 76 81 90 95 96 80 84 78 71 69 71 77 84 76 43 52 78 87 96 86 53 57 61 58 52 43 40 44 44 46 49 45 39 39 38
53 56 57 58 54 60 51 45 45 46 55 67 78 87 85 94 91 84 82 81 78 73 73 71 75 66 44 51 76 98 94 86 75 61 66 61 62 50 44 42 42 44 44 45 37 33 32
56 60 56 54 57 60 45 45 46 53 65 70 76 91 86 79 71 79 78 76 77 77 72 78 78 59 45 49 77 94 88 88 87 75 76 74 64 57 51 47 51 47 48 44 37 33 32
57 51 51 52 60 54 46 42 46 57 65 65 65 75 86 93 64 65 73 78 84 82 68 76 63 58 46 43 57 78 73 95 84 80 90 89 69 63 58 50 50 53 48 42 36 31 34
56 51 49 46 53 54 44 40 45 55 56 59 64 71 84 92 80 84 82 88 87 78 75 64 52 67 57 48 61 71 71 96 94 94 95 92 79 64 55 52 44 42 42 40 36 34 35
62 53 49 40 53 53 39 39 40 45 54 51 51 62 75 86 84 87 91 91 72 69 62 53 70 88 72 56 61 80 94 95 96 98 95 90 82 63 59 56 48 48 48 45 41 37 36
56 60 52 38 45 47 39 37 40 40 44 45 49 49 61 71 79 84 80 64 62 58 63 53 81 83 80 81 83 95 98 95 94 96 92 88 82 66 65 65 58 55 50 47 46 43 40
53 58 56 42 44 48 39 35 38 39 43 37 43 49 59 62 68 62 52 54 72 75 66 65 86 89 91 95 97 98 98 98 98 98 96 96 94 82 71 68 59 60 54 53 49 51 51
55 53 59 43 37 47 37 37 32 37 39 42 40 40 46 50 49 45 45 62 83 88 94 92 87 81 81 80 89 92 95 91 93 97 97 98 96 98 89 78 69 70 64 62 59 57 52
54 51 53 46 33 43 36 37 35 35 39 43 46 35 31 33 48 71 83 85 91 87 97 91 81 80 80 78 90 92 92 90 92 95 93 95 95 95 93 93 86 74 72 71 68 63 60
49 46 50 51 34 34 40 34 39 37 41 45 52 49 40 43 58 66 70 72 77 89 98 98 93 88 88 85 85 90 97 97 96 98 98 97 89 88 96 96 92 82 81 83 68 70 63
45 50 46 55 40 36 36 33 35 38 43 41 44 50 56 48 48 53 60 65 71 83 86 85 83 74 81 85 87 85 88 92 89 90 96 95 95 87 86 86 89 86 84 83 65 57 52
42 44 47 49 51 41 38 26 34 37 43 49 39 45 53 53 51 53 56 62 78 80 76 73 66 72 75 69 69 79 84 84 83 85 87 90 91 82 80 78 79 82 81 66 69 65 59
41 47 49 50 61 43 41 22 26 36 40 49 51 46 47 49 52 54 55 66 69 66 69 70 72 71 71 73 73 76 77 77 77 76 74 74 85 79 74 72 71 65 67 71 69 60 50
45 52 55 52 63 65 42 27 20 31 36 42 54 55 53 50 53 54 65 66 67 66 65 63 67 70 73 71 73 78 79 70 68 66 63 61 64 74 69 68 68 67 66 65 64 60 50
50 53 58 62 61 72 58 40 18 23 34 37 47 59 58 53 52 59 65 66 65 66 63 57 60 64 68 71 71 69 69 61 59 56 57 60 67 75 68 65 66 66 67 64 63 57 58
54 51 56 61 61 61 80 48 33 19 30 38 42 52 57 58 66 62 60 60 63 60 63 63 62 64 69 62 64 64 64 60 58 55 55 57 60 70 65 64 64 66 64 58 53 53 60
56 53 55 57 54 56 62 69 47 19 23 36 38 47 51 58 65 66 69 69 68 66 63 64 62 66 67 67 58 58 55 55 51 49 53 56 58 57 55 53 58 62 58 55 54 61 54
58 55 55 53 56 57 52 75 51 38 19 30 38 44 51 58 58 62 68 68 67 66 65 63 61 61 67 71 68 58 52 52 51 49 52 53 59 59 55 53 59 59 59 59 58 55 60
62 60 56 56 55 55 61 71 63 46 35 23 41 45 45 54 59 59 59 64 67 68 68 60 68 70 71 71 63 64 54 51 52 55 54 56 66 62 61 58 61 62 58 58 58 60 64
65 63 59 56 57 63 69 75 69 51 45 35 28 41 48 47 52 55 57 60 66 66 65 64 61 66 70 66 64 63 56 54 54 57 59 60 66 67 66 60 62 63 57 58 62 65 68
66 66 61 56 58 70 74 85 69 64 55 44 34 30 38 48 51 55 56 60 62 65 64 66 64 64 68 66 63 62 63 63 62 62 60 65 68 68 68 64 70 54 67 71 74 74 76
73 65 63 63 68 72 78 87 80 75 65 59 40 36 41 37 43 48 53 57 58 60 62 63 66 65 65 69 72 72 70 65 65 64 64 63 68 71 70 70 59 60 72 78 81 82 79
68 73 76 76 75 76 79 90 94 79 75 65 55 46 42 45 45 40 44 55 59 59 60 62 64 67 66 67 67 75 80 73 77 75 69 67 66 69 71 71 73 63 77 81 83 90 82
79 80 79 79 81 86 87 91 95 96 88 79 69 58 54 52 47 49 49 45 58 65 63 63 66 67 67 67 68 70 73 69 78 73 77 79 79 73 72 71 62 60 80 82 95 88 84
84 83 81 85 90 97 98 97 95 97 97 95 87 81 72 68 64 63 60 56 52 62 71 70 73 71 69 69 68 68 69 68 71 71 70 70 75 73 70 75 69 57 73 86 89 85 85
83 86 89 92 94 98 97 98 97 95 96 94 94 87 87 87 76 72 76 78 73 62 65 74 76 72 71 71 67 65 69 70 69 75 72 74 66 70 66 65 59 61 75 79 84 86 85

GFSGBSN_prec_cthk_036.txt.gz
RH
48 45 48 48 53 53 56 56 52 43 44 52 56 71 80 88 89 89 85 87 82 78 66 56 59 53 60 54 34 60 79 75 83 58 57 54 50 64 56 52 63 61 59 55 48 45 41
48 48 48 50 50 55 58 50 41 39 49 60 65 75 83 85 86 85 83 89 78 66 58 60 68 61 59 56 35 65 90 78 84 63 58 60 51 60 61 55 53 61 60 57 54 50 47
51 50 51 54 53 52 48 45 42 45 58 64 74 78 87 86 86 86 81 85 81 73 69 67 58 57 55 51 42 64 89 86 90 64 59 67 57 57 56 56 53 56 61 58 55 51 48
48 48 47 46 54 49 47 45 44 49 56 65 63 74 79 92 82 82 88 80 82 76 71 70 66 78 60 52 49 63 92 82 94 68 63 76 66 63 55 53 50 52 56 62 51 48 47
49 47 48 48 51 49 49 42 45 46 55 57 55 64 78 90 86 62 75 75 72 78 75 71 78 82 70 42 52 63 87 85 83 66 74 86 78 63 54 48 51 49 42 46 50 46 43
51 49 48 45 46 46 51 40 41 47 48 47 49 56 68 86 82 67 67 72 78 79 78 72 78 80 59 46 77 90 88 97 76 76 82 93 85 67 57 49 41 40 42 43 37 42 43
51 52 55 46 43 44 51 41 41 42 45 38 43 54 65 76 79 80 84 84 85 77 69 72 79 80 57 63 95 95 90 98 87 82 86 95 89 73 56 49 45 44 39 37 34 37 36
47 52 51 51 41 45 50 38 37 40 44 30 44 49 58 66 76 79 79 79 63 71 67 76 80 80 74 80 89 93 95 98 88 86 91 96 89 71 68 59 49 43 40 38 40 37 35
46 52 47 49 38 46 50 39 36 39 41 30 37 44 48 54 58 55 58 57 57 71 88 89 90 78 68 66 70 91 92 97 91 92 93 93 88 75 66 59 53 48 42 42 39 39 37
50 48 43 48 34 41 53 37 37 35 39 29 37 45 48 53 55 57 55 57 69 93 98 91 88 84 70 76 86 89 92 98 95 96 93 95 90 76 69 61 55 53 48 43 42 42 40
52 47 42 45 41 28 54 35 38 34 40 33 36 39 36 41 53 61 67 69 82 92 92 90 84 74 66 68 75 90 95 97 97 96 95 94 91 83 73 62 59 54 48 48 48 47 46
52 47 43 46 46 28 44 37 35 37 39 43 35 39 44 48 63 71 76 75 75 78 92 93 90 91 88 92 96 98 97 97 97 97 96 97 96 95 83 74 66 60 54 56 55 54 59
50 48 41 46 44 37 34 40 32 39 40 38 37 40 43 47 52 58 65 65 74 84 91 87 90 88 92 94 94 95 96 94 95 98 98 98 97 98 97 90 75 68 69 77 74 73 57
51 47 46 51 51 52 37 40 24 35 43 43 38 39 40 42 46 50 55 60 64 77 78 84 83 76 82 94 94 95 95 92 90 88 96 93 96 96 97 97 93 85 78 72 64 52 44
48 43 47 51 50 58 54 42 18 26 36 44 45 45 42 40 44 50 52 62 72 76 72 69 75 78 81 74 82 88 87 85 87 83 84 85 93 87 90 90 93 95 90 71 65 58 54
45 44 50 52 52 55 68 50 29 17 30 40 45 46 48 46 45 48 51 58 68 70 66 61 59 59 64 72 72 74 77 77 78 78 73 75 90 84 81 84 83 83 80 82 78 72 58
45 48 52 52 49 48 55 75 46 18 22 35 46 46 47 48 46 50 59 62 63 63 59 56 58 60 57 61 65 67 70 72 70 70 69 67 67 80 76 74 74 74 72 67 62 55 44
49 49 54 56 54 48 47 53 68 36 17 31 42 52 47 45 48 54 61 59 59 60 56 52 56 59 62 59 63 67 69 71 68 68 63 61 64 72 71 69 69 68 64 55 54 62 56
52 52 56 54 56 51 42 48 62 47 25 26 38 45 50 47 49 52 54 56 61 59 57 58 58 60 63 65 64 65 63 64 64 60 57 55 61 75 72 67 63 65 62 62 58 58 60
51 55 56 55 53 52 47 48 55 56 43 25 33 41 48 53 54 55 59 62 62 59 60 59 61 63 65 62 56 62 60 64 63 56 54 51 54 56 51 56 56 66 61 60 59 60 46
52 54 57 60 58 56 55 52 57 54 54 40 33 40 46 54 58 61 62 62 62 65 63 59 58 57 63 67 58 55 54 55 53 52 50 54 67 62 54 52 57 59 56 54 56 47 47
53 55 59 57 53 52 56 60 63 53 54 58 44 41 43 47 53 55 58 60 61 63 67 60 66 61 63 68 63 64 53 50 49 52 51 53 67 61 58 53 53 57 53 52 52 50 47
62 63 59 60 57 59 66 66 69 58 50 59 53 37 43 45 48 48 50 55 60 62 61 64 60 68 73 72 67 62 59 52 50 52 56 57 64 62 59 55 56 54 48 47 48 49 51
63 64 63 64 64 71 72 75 75 66 59 56 57 52 38 41 49 51 51 53 55 60 64 61 62 64 67 65 60 60 58 56 56 56 55 58 60 61 66 60 62 44 52 54 55 53 55
63 64 65 65 65 69 77 78 77 75 76 66 63 54 49 35 37 46 52 54 55 55 60 62 63 65 65 69 69 66 64 61 60 58 58 56 59 67 67 59 48 46 58 65 70 72 67
66 67 70 67 67 71 79 88 86 83 85 89 80 72 57 47 44 37 37 49 57 56 56 59 63 66 68 67 67 68 73 64 67 64 61 61 60 62 67 68 59 51 60 68 76 81 79
72 72 76 74 72 81 89 92 94 92 90 94 92 87 78 60 48 48 47 44 53 61 62 60 64 67 66 66 66 62 63 61 70 67 69 69 73 70 66 62 52 50 65 73 86 81 82
72 76 79 77 78 89 93 93 95 96 96 95 96 95 91 91 72 66 59 60 53 54 67 70 73 71 71 71 65 61 58 60 61 60 64 64 67 74 70 70 61 48 63 72 80 83 86
71 78 82 80 78 89 93 94 95 96 97 96 95 91 87 87 86 82 76 73 70 66 65 74 83 78 76 74 69 63 59 59 61 65 63 63 56 58 58 57 52 56 57 66 77 85 88

GFSGBSN_prec_cthk_039.txt.gz
RH
43 42 42 40 41 44 47 47 44 45 45 56 70 71 76 81 86 79 81 75 77 80 82 83 82 81 79 68 47 60 47 64 74 72 51 60 53 55 60 52 54 64 62 59 56 50 44
45 43 43 42 42 45 46 48 47 43 51 58 56 57 67 80 90 78 79 83 86 83 78 72 67 72 59 57 56 55 72 69 87 94 67 53 57 56 63 61 51 59 69 66 60 57 53
46 45 45 42 43 41 47 46 48 43 52 44 41 57 66 81 90 79 79 83 83 78 66 55 55 56 62 57 56 46 79 71 95 90 71 60 63 70 64 68 59 60 65 67 64 63 59
46 48 47 43 43 41 45 51 39 45 47 35 46 57 64 79 90 79 71 80 79 83 71 64 64 64 55 51 52 55 70 74 78 88 80 63 65 72 67 67 66 63 60 66 63 64 61
46 47 49 45 43 41 49 51 37 45 44 37 46 53 57 70 81 72 65 73 71 69 71 69 63 67 62 54 47 46 77 78 80 83 76 67 65 72 69 66 72 61 54 56 59 58 61
45 51 48 46 42 41 53 46 37 46 46 36 39 47 55 64 70 64 66 69 70 73 76 77 78 80 62 54 48 74 92 82 92 88 78 80 82 77 71 66 57 49 49 45 49 58 56
46 46 48 46 43 43 55 48 36 39 47 30 38 45 52 59 66 71 79 83 87 86 78 80 83 89 73 66 65 94 92 91 91 92 79 89 86 77 56 49 47 48 46 43 42 48 54
45 46 47 46 45 41 51 50 39 36 44 40 40 46 48 48 57 57 66 79 77 80 84 81 89 87 85 81 77 85 79 97 81 83 72 93 86 76 66 61 54 53 50 46 48 43 44
48 45 45 44 45 33 46 50 39 42 38 43 42 44 48 50 62 68 69 67 73 84 98 95 87 91 89 88 88 85 82 94 86 87 78 79 86 83 80 68 63 56 52 43 46 44 42
50 46 44 45 39 36 34 50 37 40 38 39 43 51 54 63 73 73 77 79 85 91 98 87 88 95 94 97 98 97 94 96 91 88 88 89 87 83 79 77 59 56 54 47 48 46 35
51 49 48 48 40 40 30 40 33 39 39 37 41 47 48 51 61 72 73 79 84 97 96 99 89 94 96 92 92 94 97 98 95 96 95 95 94 86 78 74 61 65 53 47 46 50 49
47 44 43 44 42 47 45 33 28 33 45 40 38 45 48 50 52 57 61 68 75 80 87 85 88 86 79 78 86 92 98 92 98 96 96 96 97 91 83 80 67 65 54 49 48 52 62
48 42 40 41 46 46 54 45 28 23 37 45 44 39 43 46 50 54 61 65 67 73 89 82 78 83 74 83 96 96 97 97 98 99 98 98 98 96 90 82 78 62 56 67 67 71 55
43 40 39 44 46 47 53 60 43 18 23 40 46 44 44 46 45 50 58 64 64 71 71 79 74 79 89 89 94 95 95 97 97 94 98 98 97 98 96 88 74 63 61 69 62 58 52
38 39 42 44 48 44 41 52 65 25 18 31 41 46 47 48 48 48 57 63 74 72 66 68 67 75 81 83 90 91 85 92 92 89 94 94 98 97 97 92 82 81 77 62 55 47 47
38 39 41 46 46 44 41 39 54 56 16 25 40 48 47 45 46 50 50 62 68 63 59 60 64 64 64 71 79 80 77 81 83 79 80 80 93 90 94 96 96 91 77 81 72 74 53
42 41 43 45 46 47 44 38 37 62 32 20 39 49 46 43 45 52 54 62 62 58 56 55 53 56 60 65 66 69 69 69 72 72 69 72 74 86 83 88 91 94 97 84 76 65 62
43 44 44 46 48 50 48 44 38 49 61 16 36 55 46 44 52 49 51 53 56 57 53 55 56 56 51 55 57 59 58 62 64 64 67 66 70 78 79 72 73 77 76 76 74 75 58
42 46 43 46 46 48 46 43 47 44 50 40 30 42 48 46 55 52 49 52 57 55 54 54 55 57 59 59 59 61 61 64 62 63 64 60 66 74 71 68 67 67 67 66 61 60 65
44 44 48 51 49 48 47 43 46 41 42 61 34 44 50 52 49 50 48 48 52 53 53 53 54 57 59 62 59 63 62 61 61 58 55 53 54 62 60 62 55 62 56 59 60 66 54
41 50 55 53 49 48 51 52 51 39 41 61 55 42 49 59 55 54 56 57 55 57 56 55 55 54 58 64 58 53 59 59 61 59 53 53 62 56 51 51 54 56 53 57 62 60 60
51 52 50 49 50 52 55 55 56 37 39 59 72 47 44 46 54 57 59 58 57 58 59 61 56 58 54 59 63 57 53 53 52 54 55 54 63 63 62 52 50 51 50 52 52 50 49
47 47 50 50 51 51 55 58 64 48 36 47 63 69 44 45 50 51 54 57 58 59 58 60 59 65 68 66 69 68 63 57 49 47 50 52 59 62 59 52 52 52 42 43 43 43 44
43 48 51 52 52 56 58 63 68 65 52 54 56 67 58 41 47 54 52 53 55 57 63 61 60 64 66 68 66 62 61 59 57 52 50 54 59 61 66 58 64 47 44 45 43 43 43
45 50 56 58 57 62 63 66 74 77 70 67 74 69 64 49 31 39 52 54 55 55 58 62 64 64 65 69 68 66 65 63 60 56 54 53 54 64 65 59 46 41 45 52 55 58 50
47 48 56 63 64 64 63 67 72 80 85 80 77 86 87 69 55 38 32 43 57 59 59 59 63 64 67 70 68 69 69 61 66 63 58 57 57 59 61 63 55 50 52 55 63 70 68
49 51 57 59 65 68 69 69 78 82 86 89 86 90 91 94 79 48 42 40 44 60 64 63 63 66 67 66 67 65 62 62 66 64 66 67 64 65 62 59 45 42 55 58 70 72 73
47 51 57 63 71 71 77 80 86 85 88 90 90 88 92 92 88 84 65 58 46 39 52 62 66 70 71 70 73 62 58 56 56 55 58 63 68 67 63 64 59 43 55 62 63 70 76
49 56 62 66 76 78 80 84 92 92 90 93 91 92 93 93 89 83 79 70 71 64 62 61 74 75 80 78 68 64 54 54 52 57 53 58 53 59 57 55 50 49 52 58 64 70 78

GFSGBSN_prec_cthk_045.txt.gz
RH
35 37 38 40 43 39 38 32 36 39 37 30 36 45 47 50 55 70 86 74 71 74 79 84 91 92 91 95 94 70 49 37 84 75 73 56 42 52 51 48 49 60 68 72 73 73 77
34 38 40 41 42 38 38 35 34 42 38 36 36 45 49 49 56 69 74 72 69 70 73 74 77 90 93 96 91 77 59 47 85 88 79 66 43 45 55 48 45 46 63 73 72 71 74
34 36 40 40 43 37 38 39 32 40 41 39 41 45 48 53 62 66 61 61 73 76 76 68 63 73 82 85 87 83 79 59 68 89 85 71 58 50 51 57 45 52 56 71 73 65 68
33 36 39 41 40 35 35 42 36 36 42 39 41 48 49 51 53 54 57 60 65 71 69 65 61 65 69 65 68 78 84 84 71 91 88 79 68 61 58 63 57 58 53 68 61 69 68
34 34 36 37 37 31 26 40 41 38 40 41 38 47 53 55 66 64 59 62 57 60 65 61 61 63 63 60 52 58 81 78 75 86 93 92 77 66 62 67 76 66 65 57 57 59 67
34 34 34 35 36 33 29 29 47 39 40 38 43 43 49 55 73 76 61 66 71 70 63 67 64 65 60 59 52 44 69 87 95 97 98 93 85 72 60 60 62 59 51 50 49 50 59
35 35 34 36 35 35 36 33 33 37 45 42 38 39 45 49 67 72 63 72 76 76 72 68 61 55 52 56 52 45 63 92 96 97 88 81 77 59 51 55 53 57 60 58 53 50 60
34 37 36 33 31 32 36 42 36 26 35 42 44 39 39 46 58 67 62 62 80 78 76 64 50 45 55 59 66 77 86 89 92 96 96 97 78 66 59 52 54 62 64 60 57 52 54
34 37 34 32 31 36 36 40 46 37 26 29 41 46 42 41 53 60 66 67 65 73 82 73 65 61 65 69 85 92 98 92 78 89 93 81 74 65 61 60 55 57 55 58 60 57 54
36 36 33 32 33 36 37 39 40 48 32 26 27 40 46 43 50 55 66 72 78 72 85 87 80 80 79 76 83 88 86 92 92 96 90 81 75 65 62 60 57 58 52 60 63 59 62
35 35 31 33 33 36 38 38 39 40 50 29 23 35 43 43 44 53 62 66 73 84 94 85 91 92 91 94 95 95 97 96 92 93 83 82 75 71 67 64 62 61 60 64 65 65 62
35 35 33 33 34 38 38 41 39 37 46 41 20 33 42 46 48 54 62 67 70 74 95 98 98 97 98 98 89 87 93 88 91 83 81 80 77 81 79 74 68 63 69 70 70 73 81
36 35 34 34 35 37 37 38 37 34 38 50 21 33 43 44 49 54 61 64 63 70 76 86 92 96 92 94 94 84 83 83 82 88 90 89 90 88 89 85 81 76 75 95 93 90 74
35 34 32 33 34 34 34 35 33 31 32 41 28 33 41 44 46 52 61 63 64 67 80 87 92 82 84 83 90 90 94 89 82 78 85 86 85 87 93 89 88 84 81 85 84 83 68
33 33 32 32 33 33 34 33 29 30 31 31 39 37 45 44 46 53 55 60 63 68 67 70 80 85 83 84 86 96 93 87 84 82 82 88 90 88 87 86 91 92 95 78 80 66 73
32 33 32 32 34 34 32 31 30 32 30 29 36 43 48 46 47 55 54 59 63 60 64 64 71 74 80 86 91 95 95 92 90 85 82 86 94 96 94 96 95 90 85 90 90 94 72
32 31 31 32 34 31 29 30 30 31 28 30 39 54 52 50 52 54 54 61 58 56 56 59 60 60 66 75 76 84 84 89 87 87 81 81 84 97 98 98 96 93 93 86 79 86 84
31 30 31 31 30 31 29 28 29 28 28 25 41 60 55 56 60 54 58 56 55 54 53 53 53 57 60 61 63 62 72 79 77 78 84 81 86 96 93 91 94 91 91 89 89 82 78
30 32 30 28 28 29 29 30 31 26 30 34 39 48 62 61 65 52 50 54 56 56 57 55 53 53 52 53 58 59 61 64 69 73 75 77 82 95 97 87 89 93 89 86 81 76 79
30 29 28 27 27 28 31 31 32 26 32 39 44 53 61 65 67 58 55 54 58 57 54 52 53 54 57 58 55 60 61 60 64 64 65 67 73 73 75 72 76 84 85 89 90 91 75
30 28 28 29 28 31 31 31 32 29 28 34 47 53 62 73 65 72 61 57 55 59 57 56 57 53 58 60 58 62 62 62 61 60 60 63 70 69 63 64 66 63 66 74 88 84 88
28 30 31 32 31 32 33 34 33 35 32 31 44 47 49 67 68 72 72 67 65 68 62 60 58 57 57 63 60 58 58 58 61 61 61 61 67 65 62 56 57 59 56 59 61 62 64
29 32 33 34 33 34 35 34 35 38 41 42 45 54 60 57 71 66 70 76 71 67 67 64 63 63 62 69 67 64 62 55 58 59 61 64 65 61 63 55 57 59 50 49 48 49 50
33 34 35 37 35 36 35 37 38 43 46 51 58 60 62 64 64 74 57 62 66 67 74 66 64 66 66 69 69 68 66 68 66 63 58 58 61 63 68 62 68 41 44 44 42 39 43
34 35 39 38 36 37 37 40 43 46 51 55 61 62 69 75 61 68 58 54 60 65 68 69 70 69 65 65 65 67 71 68 65 63 62 58 55 61 63 64 51 46 46 46 49 46 42
33 35 38 37 36 37 38 41 44 48 53 59 66 71 73 83 85 77 69 60 58 67 69 68 66 67 66 70 71 70 70 70 73 66 61 59 59 59 68 64 65 56 53 50 50 60 51
34 35 37 38 35 37 38 40 46 51 58 62 73 76 80 84 87 82 87 74 58 58 61 66 63 65 69 71 72 72 64 63 74 72 71 70 68 72 70 68 52 43 48 50 65 60 62
36 36 39 40 38 38 40 43 48 53 59 65 76 84 84 81 84 87 81 89 76 59 51 60 66 69 73 74 71 68 66 59 58 60 65 68 73 75 73 70 65 50 52 56 56 60 61
34 36 40 43 41 41 41 45 48 55 62 69 79 84 86 82 80 82 83 84 89 78 59 41 58 62 73 73 76 74 70 63 58 61 55 64 59 62 58 59 52 55 53 55 56 60 63

GFSGBSN_prec_cthk_048.txt.gz
RH
34 38 38 36 37 36 34 35 35 36 36 33 34 41 45 53 59 61 60 58 70 70 69 79 81 81 84 79 68 79 65 55 55 91 95 79 43 51 56 52 58 64 68 78 83 87 90
32 34 37 38 37 33 33 38 38 38 36 39 38 38 42 49 58 58 60 57 59 71 67 65 75 92 96 89 72 80 65 55 40 71 87 84 48 47 52 52 56 56 63 82 89 88 88
33 34 34 36 36 34 31 35 42 44 35 41 37 38 44 50 49 51 55 62 63 64 70 67 66 74 90 98 94 90 77 58 48 51 75 77 61 49 44 52 48 53 66 79 77 77 78
34 34 35 32 41 33 34 34 39 48 43 42 42 37 43 54 54 48 56 61 58 58 65 63 61 69 81 89 94 93 90 74 63 71 88 83 74 58 49 53 54 60 54 70 64 68 70
35 34 36 32 34 35 37 40 38 41 40 45 39 37 42 49 57 53 50 52 56 52 58 55 61 67 73 72 79 80 88 83 84 93 96 93 78 70 59 55 61 61 59 55 57 60 64
35 35 36 32 30 38 40 43 46 40 31 39 45 42 40 46 58 58 55 54 55 62 55 58 61 62 66 65 64 73 77 87 94 97 98 98 85 78 67 60 55 50 49 45 48 49 58
34 35 35 33 30 32 37 42 42 50 41 24 38 46 45 45 53 63 60 61 60 54 52 56 57 54 52 53 55 64 83 72 88 94 97 97 85 70 60 59 50 47 50 49 47 46 51
35 36 33 30 31 33 39 37 42 41 48 38 24 33 46 43 49 62 66 62 70 58 54 47 49 46 47 50 57 58 77 82 97 96 97 96 83 75 67 64 60 59 59 57 52 50 50
35 35 32 31 32 34 37 38 39 42 39 49 28 26 43 42 49 55 66 63 73 78 64 55 56 55 52 54 64 75 86 91 94 90 97 95 83 79 72 64 56 55 56 57 56 56 56
36 35 32 33 34 34 34 36 40 39 35 43 35 23 41 44 49 56 66 67 68 80 86 82 82 87 81 79 77 88 91 98 98 98 95 89 86 79 74 66 59 62 54 53 58 64 67
36 34 32 30 31 33 35 34 37 35 32 37 44 21 40 44 48 55 66 65 67 81 93 86 83 84 83 87 88 99 98 96 94 98 97 95 80 73 73 62 61 60 54 52 54 63 64
36 32 32 29 29 31 30 34 31 33 30 32 44 22 39 43 50 54 62 65 67 73 94 98 96 97 97 79 86 94 95 91 95 96 90 85 81 77 71 67 62 60 59 60 63 66 73
37 33 32 30 28 29 30 31 30 26 29 29 31 29 39 42 47 55 59 64 65 75 86 90 96 97 89 81 78 81 92 96 93 95 92 90 84 78 75 71 68 64 66 79 80 82 66
35 34 32 30 29 29 30 30 29 28 28 25 27 35 40 44 48 53 58 59 65 75 84 81 85 94 90 83 87 88 86 86 88 79 84 84 87 84 80 75 69 67 67 73 79 81 73
34 35 32 30 28 28 26 26 24 25 25 25 27 35 48 48 51 54 57 57 58 64 65 82 81 86 85 86 91 95 89 79 77 75 76 80 80 82 82 83 82 83 86 75 76 71 77
36 36 34 31 29 25 24 23 24 23 23 24 28 39 49 53 56 55 58 55 57 59 59 64 79 81 90 94 97 92 90 77 75 74 73 75 82 80 83 90 90 88 85 87 89 92 74
35 37 36 31 27 25 24 23 23 22 23 24 34 47 55 59 60 57 58 58 54 55 53 55 63 71 75 81 86 87 89 87 81 79 75 75 76 88 90 89 85 88 91 90 86 86 87
36 37 35 30 27 24 24 24 23 21 23 28 36 50 55 64 68 64 58 58 51 50 50 50 52 54 62 64 65 73 81 79 80 76 78 76 84 90 91 88 89 88 88 88 94 91 85
35 36 34 31 28 26 24 25 23 21 23 31 40 46 52 63 77 66 58 57 56 53 52 52 49 48 50 54 57 59 66 74 77 78 80 77 82 89 89 85 87 94 94 89 89 87 85
35 34 34 31 28 27 26 26 25 22 20 30 42 53 57 68 71 76 70 62 61 57 53 50 51 50 50 52 52 57 59 61 65 70 74 76 76 77 83 76 82 90 88 90 93 95 81
33 36 33 33 30 28 27 27 27 26 24 30 35 49 60 65 76 80 79 73 69 67 56 52 52 51 55 57 57 62 59 59 62 65 67 69 75 74 71 69 70 70 77 86 89 84 86
31 37 35 34 33 29 30 30 29 29 29 30 34 41 53 62 71 82 81 81 78 70 65 62 57 58 56 62 59 62 61 59 61 64 62 65 70 70 71 68 68 65 63 65 70 76 76
34 39 36 34 32 31 32 32 31 29 30 35 42 47 57 59 58 81 85 84 81 77 76 70 66 64 66 68 67 64 63 56 57 61 64 66 69 66 65 62 60 59 49 51 54 56 58
40 38 36 34 33 33 34 36 36 33 33 36 41 48 50 56 62 64 70 76 81 84 80 76 72 68 67 68 69 68 68 67 63 64 64 66 67 69 72 63 69 42 42 45 46 44 47
41 35 34 33 33 35 36 38 39 37 38 38 43 47 56 64 60 62 64 76 74 80 84 79 79 74 68 67 68 72 76 75 74 73 69 67 68 64 67 68 48 40 48 49 49 45 42
38 34 33 34 35 38 39 40 42 40 40 40 44 51 57 64 72 77 73 65 72 69 80 81 78 75 73 74 72 67 71 67 72 69 69 69 67 66 69 63 65 49 55 49 51 56 50
36 35 35 36 38 39 40 42 43 40 42 42 48 56 59 66 72 75 81 80 68 71 72 77 73 74 72 71 72 70 65 62 72 76 74 71 69 72 72 73 55 43 47 52 62 56 63
38 35 34 36 36 36 38 42 42 45 48 49 55 60 69 70 73 75 79 85 86 67 74 74 77 77 77 77 74 69 66 59 59 62 67 70 74 77 75 77 65 46 50 53 53 58 60
35 31 32 33 34 35 35 40 42 47 49 50 57 67 74 81 81 77 77 80 81 87 69 68 79 75 77 77 76 76 73 65 60 60 56 61 59 64 62 59 51 54 54 52 54 56 60

GFSGBSN_prec_cthk_051.txt.gz
RH
34 34 35 31 35 32 28 31 35 39 39 33 38 41 41 42 39 44 50 52 49 55 69 73 74 75 72 73 69 76 68 67 71 78 80 81 68 46 48 55 63 62 68 77 86 82 79
34 34 35 33 33 30 32 35 35 40 45 39 43 42 44 46 42 42 49 56 55 57 60 67 69 80 85 80 77 74 76 63 58 65 84 92 77 46 48 57 62 61 64 76 80 87 84
33 34 35 33 31 32 35 37 38 36 43 40 45 46 46 46 48 43 50 58 50 57 62 65 62 76 81 89 82 74 80 64 55 59 85 89 82 59 50 60 58 64 69 76 85 89 87
34 34 35 32 31 32 37 41 43 43 36 40 46 48 49 44 53 46 49 57 45 49 58 55 56 68 89 94 88 85 85 77 59 62 91 97 86 67 53 54 57 64 73 76 82 85 83
36 34 34 32 30 31 35 40 41 44 48 38 40 48 49 50 54 52 50 55 45 42 49 52 59 70 83 91 94 89 86 92 66 62 91 95 87 73 62 55 59 65 67 68 63 66 70
38 35 35 33 32 34 35 40 39 42 44 51 32 36 46 48 54 58 54 61 50 45 44 50 56 65 75 77 88 90 86 88 72 75 94 95 93 84 73 62 54 50 52 48 54 53 62
39 36 35 33 33 35 37 38 40 43 41 48 47 32 31 46 52 62 57 67 61 45 43 46 51 62 57 60 71 78 80 89 82 67 86 98 97 77 64 56 44 49 49 51 49 49 51
40 36 35 34 34 37 36 36 38 43 41 45 52 34 30 46 49 59 63 65 74 56 48 46 51 53 52 55 64 78 83 96 80 84 98 97 91 80 73 59 52 48 51 51 51 53 56
39 36 34 33 33 36 38 34 33 39 40 40 50 40 28 45 49 57 65 67 81 80 61 57 52 51 49 56 62 77 88 94 98 93 96 90 84 82 75 67 59 49 50 51 51 51 53
39 35 34 32 33 33 36 33 33 35 38 36 42 43 24 44 52 56 65 66 80 85 86 89 86 74 66 66 69 76 93 89 97 98 98 95 87 84 82 72 63 58 54 55 57 61 63
38 36 34 33 31 31 32 32 32 31 34 31 32 40 24 45 50 56 63 70 80 88 88 89 93 85 79 82 82 77 81 90 97 97 97 96 84 79 81 72 62 62 57 58 58 62 62
37 36 33 32 31 32 30 31 27 30 34 31 26 30 27 46 50 55 63 69 75 81 89 95 95 88 96 88 88 92 90 85 90 95 97 96 93 87 83 73 63 60 63 62 63 62 68
36 35 32 32 32 31 28 27 25 30 32 27 27 27 37 46 50 53 58 67 71 79 76 81 86 79 84 88 88 96 90 96 97 98 98 94 96 89 80 74 65 63 65 80 80 78 69
35 31 32 32 33 32 26 25 23 25 25 25 26 30 39 50 51 53 55 61 70 72 76 71 77 75 72 78 92 94 96 97 94 90 89 87 88 79 78 73 66 67 65 70 72 76 67
32 30 31 32 33 30 26 24 24 23 22 25 25 37 43 53 55 54 55 62 62 71 78 74 76 76 78 80 81 90 89 93 88 82 78 82 82 79 77 72 69 72 75 65 70 66 70
31 29 33 32 31 29 27 24 24 21 22 25 30 45 48 55 59 56 55 59 63 67 72 82 84 75 84 86 89 87 86 85 79 76 71 72 81 77 78 75 74 71 68 75 78 80 73
30 29 33 31 30 28 27 24 22 21 21 27 38 48 48 56 60 63 59 60 61 64 65 73 79 81 83 89 87 89 79 73 73 75 72 71 71 82 86 82 81 85 85 82 79 80 77
28 28 31 29 31 28 28 26 24 20 20 27 39 50 52 55 65 68 65 58 57 57 59 64 70 77 78 74 84 79 81 71 69 72 75 74 81 84 83 85 86 90 88 88 91 88 84
29 28 30 30 31 29 29 27 25 23 21 29 37 47 55 57 63 69 67 59 56 57 58 60 65 66 68 68 70 78 82 81 81 80 81 79 83 89 92 93 89 89 84 84 82 83 83
29 31 30 31 31 30 30 28 26 25 24 30 39 46 52 62 60 65 73 67 57 58 57 57 59 58 58 60 58 64 69 79 84 85 86 85 85 84 86 77 81 87 85 92 93 91 79
30 31 30 31 31 32 31 28 27 25 25 29 34 43 51 60 64 69 75 77 67 64 59 57 58 59 63 60 58 60 62 65 70 75 81 80 84 82 77 74 78 78 78 82 89 85 85
31 32 31 32 32 31 31 30 28 28 27 27 29 34 46 53 60 65 74 86 77 72 66 64 61 62 61 67 66 65 64 59 61 64 67 69 77 75 76 71 74 72 69 71 68 74 79
33 32 33 31 33 32 31 30 30 30 29 30 35 38 51 49 59 69 67 80 81 74 70 66 69 67 68 70 70 68 64 59 55 60 66 66 69 69 66 65 62 64 57 55 56 57 58
33 31 35 32 33 32 30 30 32 31 31 33 35 38 39 50 57 62 73 75 84 80 76 75 74 71 71 73 72 71 69 65 61 58 61 66 67 69 73 64 66 42 40 42 46 43 49
31 34 34 34 34 34 32 32 32 33 34 36 36 39 45 51 58 64 67 70 75 81 83 81 81 78 75 72 73 76 78 72 70 69 66 67 71 73 70 73 53 38 45 49 50 45 44
34 35 33 36 36 35 33 32 34 35 37 38 41 43 49 56 64 64 65 67 67 74 83 86 81 81 78 77 77 73 79 71 73 73 72 75 72 70 76 66 64 43 50 51 52 56 55
35 34 36 39 37 33 32 32 32 37 39 40 44 44 48 54 62 65 68 77 72 65 71 82 79 79 78 81 84 79 72 66 72 74 78 76 76 77 72 74 59 45 44 51 64 54 59
35 36 42 41 40 33 30 30 32 38 39 43 47 50 54 58 64 66 71 73 78 70 72 76 82 82 82 79 79 74 73 66 66 65 69 73 76 78 77 78 69 48 51 53 52 52 57
34 41 43 40 37 30 28 28 31 35 37 42 48 52 56 56 62 68 72 73 81 86 75 74 85 86 84 81 77 76 72 72 63 63 61 65 61 65 66 61 54 54 57 55 54 54 57

GFSGBSN_prec_cthk_057.txt.gz
RH
33 35 33 32 35 34 37 39 39 38 37 39 41 40 36 42 45 52 47 52 48 46 44 42 47 64 65 65 69 77 81 71 85 97 98 88 77 70 56 54 60 70 76 82 91 85 84
36 38 35 35 35 35 37 38 40 40 39 39 40 45 36 37 49 53 51 54 49 42 42 48 49 58 59 59 65 67 77 78 74 97 98 91 80 75 58 54 53 59 67 77 86 83 82
42 39 36 35 37 37 36 37 40 39 40 40 41 44 44 32 47 54 57 58 52 41 39 46 51 54 55 59 62 60 67 80 71 94 90 87 88 82 61 56 59 56 61 66 76 82 81
43 42 40 37 37 37 38 38 39 38 39 40 42 43 46 34 42 51 62 59 55 44 40 42 50 56 67 74 78 68 70 79 82 97 93 91 94 84 68 58 59 61 62 67 71 76 79
50 47 42 37 36 37 37 40 39 37 39 37 40 40 47 41 38 48 62 59 59 49 46 44 49 64 75 80 87 74 75 79 73 85 94 91 93 88 75 67 61 62 61 59 67 76 78
50 50 44 37 36 38 37 40 39 38 38 38 35 39 47 44 39 48 58 58 65 54 50 44 53 60 67 81 92 77 75 84 74 80 92 96 98 94 85 69 60 58 58 59 61 66 76
52 52 48 40 36 38 36 37 37 37 36 35 35 37 43 45 34 48 59 58 72 60 55 42 42 48 53 84 87 75 85 89 84 91 89 96 97 89 78 68 58 48 54 57 59 61 73
56 53 51 44 38 37 36 33 35 34 32 31 33 36 39 46 37 52 57 61 70 71 72 73 54 49 53 68 90 87 90 91 88 90 86 97 98 94 85 74 63 60 58 60 61 64 66
65 55 52 47 40 35 35 32 32 32 30 29 31 36 36 43 35 48 57 65 71 77 82 94 86 58 61 67 84 90 97 95 91 81 88 97 96 89 87 82 70 62 54 58 59 64 64
59 56 49 49 39 34 33 31 29 32 30 28 31 35 31 33 40 46 54 66 72 70 83 94 90 79 78 74 87 89 96 96 84 72 98 97 93 88 86 84 74 71 51 46 51 54 64
58 52 51 45 36 34 31 27 30 30 30 29 30 31 30 28 42 50 57 68 76 71 82 85 95 85 87 91 87 85 91 87 77 79 97 96 88 87 88 81 75 71 61 53 52 54 54
51 46 52 43 33 33 30 26 27 30 27 26 24 25 26 34 46 52 57 65 73 72 76 84 86 91 93 90 93 84 84 76 72 83 92 97 88 91 83 82 77 71 60 60 59 59 63
52 47 48 39 34 32 29 26 27 25 22 22 23 28 31 43 48 51 54 61 73 74 72 74 83 87 92 93 93 88 83 76 72 85 95 96 94 92 88 85 80 71 70 78 74 70 63
56 50 45 37 34 31 28 27 27 23 21 25 27 33 39 46 50 53 55 60 75 74 77 72 79 86 96 93 97 92 81 75 75 78 91 98 98 94 87 81 80 75 68 69 72 73 62
60 52 45 36 32 30 28 26 27 24 20 27 29 37 45 48 52 55 60 63 71 77 78 75 79 84 93 94 95 95 83 77 78 86 98 97 97 94 91 87 81 80 72 60 63 62 59
67 52 45 35 30 29 27 27 27 26 22 29 32 40 49 49 54 58 61 65 74 74 82 86 86 90 91 92 94 98 92 87 95 96 91 86 92 91 91 86 86 77 69 74 72 70 65
80 54 45 35 29 28 27 27 27 25 23 30 35 40 47 51 54 62 65 68 72 75 79 82 84 95 97 97 89 91 92 89 91 94 85 84 84 96 91 88 87 82 82 74 69 67 64
89 53 42 35 28 27 28 27 26 25 24 29 34 40 46 53 58 60 66 70 72 75 71 78 86 87 94 94 93 88 88 87 86 85 82 80 81 92 92 89 87 82 72 70 75 70 70
91 51 40 34 28 28 29 28 27 25 24 25 31 39 45 51 58 57 65 70 73 75 70 66 78 84 83 82 89 85 80 85 81 81 78 73 80 85 83 75 73 76 74 73 73 72 73
89 53 38 32 27 29 29 29 29 26 23 25 32 38 45 51 57 56 65 73 78 71 66 65 68 73 80 79 78 85 82 82 81 79 73 70 76 72 73 68 70 76 71 72 77 80 71
90 52 37 30 28 30 31 30 30 27 24 23 27 33 40 49 53 56 64 74 80 80 72 67 64 65 64 67 70 77 84 88 83 80 77 75 80 77 73 72 74 74 75 80 80 75 76
91 53 38 31 30 32 31 30 31 28 24 23 24 28 36 40 45 56 61 70 77 79 75 71 67 65 62 68 70 67 65 72 84 91 90 85 86 81 83 77 78 78 78 81 78 76 77
93 53 37 32 31 33 31 31 33 27 25 25 27 29 30 36 43 50 55 63 77 77 77 74 73 70 67 67 69 71 69 66 63 70 79 83 89 86 80 77 71 68 66 69 73 74 73
89 55 37 34 33 34 33 32 34 28 26 26 26 27 30 37 40 47 56 63 68 78 83 79 75 71 76 72 68 67 67 69 68 68 66 70 72 73 74 66 71 50 49 50 52 50 54
82 54 41 37 36 38 36 34 33 28 28 26 27 27 27 37 41 48 52 61 66 73 79 83 80 81 78 72 70 72 75 72 73 72 70 67 68 74 74 76 62 54 61 61 58 56 58
76 52 40 41 36 38 37 36 33 28 28 27 29 28 30 35 44 47 50 56 63 71 74 83 86 82 82 81 77 74 80 78 81 80 78 76 76 78 81 81 75 58 61 56 55 64 63
72 54 46 37 39 36 38 38 33 30 27 31 29 28 30 38 46 47 54 59 60 61 67 72 77 81 82 86 88 85 81 74 82 75 79 80 82 82 83 83 70 60 60 58 63 60 61
74 59 42 40 40 36 39 38 34 29 27 32 30 29 29 37 45 46 50 55 61 64 69 73 75 83 92 88 86 93 86 80 77 74 74 74 77 83 83 84 80 67 69 71 71 65 61
73 51 42 43 38 35 39 40 32 27 29 33 29 30 32 34 42 45 50 54 55 59 66 72 87 81 85 90 88 87 83 88 84 77 70 71 68 70 72 71 65 69 69 71 70 67 65

GFSGBSN_prec_cthk_060.txt.gz
RH
46 42 39 38 37 37 36 38 39 38 38 37 37 37 40 42 41 43 44 48 51 43 39 38 40 43 53 58 63 67 78 72 77 73 93 96 91 77 56 56 76 91 74 76 82 79 82
52 48 44 41 37 39 37 37 40 38 38 37 36 39 40 47 39 42 47 53 53 44 38 37 43 48 51 52 46 55 60 64 80 94 88 96 97 82 57 54 75 65 90 81 75 79 77
54 52 51 44 41 37 38 37 40 38 38 40 36 39 41 47 46 33 47 54 56 47 40 39 44 51 59 61 59 49 51 59 76 91 89 98 97 85 68 60 59 67 82 90 83 80 80
56 53 50 49 45 40 38 37 39 37 37 39 39 39 42 47 48 32 47 57 57 48 43 42 49 54 61 71 75 72 59 61 78 86 92 97 99 90 74 63 55 60 77 85 83 88 82
55 56 51 47 49 43 40 38 38 36 36 35 38 40 40 42 47 36 45 57 60 48 46 48 47 54 65 73 84 77 65 66 82 85 96 98 98 91 75 62 60 64 58 69 80 80 80
60 58 61 60 51 45 43 38 38 35 34 32 33 38 40 39 45 37 45 56 57 51 49 51 45 54 55 85 89 83 69 76 92 90 93 97 98 90 81 69 60 59 57 57 59 65 72
67 58 65 63 54 46 45 38 36 34 31 31 32 35 39 38 43 39 46 58 59 61 64 70 63 49 50 82 80 79 76 88 84 93 96 97 98 86 69 60 57 56 62 60 59 62 62
71 64 66 62 51 48 45 37 34 31 30 31 31 34 37 37 40 42 47 58 57 61 69 78 79 50 54 88 89 75 88 95 98 98 88 96 97 89 82 75 62 55 54 52 53 55 57
79 70 66 59 51 43 40 36 30 30 30 30 31 33 35 37 37 43 47 56 59 61 71 82 79 68 67 86 91 92 90 82 95 94 87 90 92 95 87 75 70 60 54 50 46 59 60
83 78 63 54 48 41 36 35 27 29 28 30 31 32 34 36 39 44 47 57 64 62 75 82 87 80 84 85 93 96 89 86 92 95 88 93 94 95 89 78 70 74 62 53 51 50 53
86 81 63 53 46 40 35 32 25 25 27 29 29 31 34 32 39 47 49 57 70 66 76 79 93 82 81 84 86 95 90 84 86 89 89 90 96 96 87 80 70 67 59 58 51 47 45
95 90 64 55 47 37 35 30 25 24 23 24 23 26 26 33 42 47 49 55 71 70 78 82 90 88 81 80 88 93 96 83 89 89 97 97 96 90 86 84 77 70 63 57 52 51 54
95 93 70 58 46 37 33 28 25 24 22 22 25 30 35 40 43 47 50 57 73 74 73 79 95 96 94 80 75 85 89 82 81 91 98 97 93 89 84 83 79 71 68 75 70 66 52
92 96 74 60 47 36 32 28 25 24 22 24 30 35 37 41 43 48 52 56 73 72 74 78 89 96 92 93 80 78 76 79 81 81 89 97 91 88 83 79 75 75 62 62 63 58 50
93 97 83 67 49 36 30 28 26 24 22 26 33 37 40 42 47 50 56 61 71 75 75 75 83 88 99 97 90 82 76 74 75 82 83 96 95 90 88 82 75 73 73 58 57 54 50
93 98 95 73 48 36 28 28 25 23 22 27 35 39 41 46 48 55 58 63 71 71 77 84 84 93 91 97 91 83 81 75 72 81 80 87 96 92 88 84 79 72 65 66 63 64 51
94 98 98 81 48 34 27 28 25 24 22 28 37 41 44 47 51 57 61 68 67 71 78 81 88 94 91 95 91 77 76 76 77 78 80 86 85 95 89 87 85 77 73 68 61 58 55
95 99 98 87 47 33 27 29 27 25 23 30 36 40 45 48 55 56 65 66 66 68 70 77 89 86 91 87 89 83 80 81 86 91 92 86 86 97 97 86 83 77 71 68 65 68 61
96 98 98 89 45 30 28 29 28 27 26 30 36 39 43 48 53 53 59 65 68 71 67 68 80 84 78 80 82 82 85 86 93 89 86 80 86 96 97 88 84 82 74 70 67 63 65
99 98 97 85 43 30 29 29 29 28 25 27 33 39 45 49 54 53 57 64 69 69 65 64 72 78 79 77 74 78 84 85 89 89 82 77 73 72 68 68 68 73 69 68 65 71 60
99 99 97 77 41 31 31 30 28 29 25 25 27 32 37 46 48 51 56 62 70 72 65 63 65 70 68 69 75 76 80 84 84 87 83 78 80 73 65 66 67 66 63 63 67 59 68
99 99 97 70 41 33 32 30 28 29 25 24 25 27 35 39 44 50 53 60 65 70 69 67 63 67 64 64 69 72 78 78 79 78 82 77 80 74 74 67 66 68 64 64 63 63 66
99 98 97 70 42 35 35 32 30 30 26 24 25 26 29 37 43 48 50 57 66 67 74 71 71 65 69 68 66 66 66 69 76 86 84 81 78 78 76 71 68 68 64 65 66 68 67
99 98 96 68 45 37 37 33 31 31 26 24 24 28 28 35 39 41 46 54 66 64 68 75 67 69 71 68 68 65 65 68 69 68 70 76 79 80 80 72 70 54 53 54 55 55 56
98 98 93 67 47 43 41 36 33 31 26 24 26 26 27 35 39 42 47 51 58 71 71 72 78 71 75 71 65 68 69 68 71 73 68 65 64 68 67 63 55 56 57 58 59 63 60
96 97 88 66 48 44 45 37 36 33 26 25 27 29 27 32 39 42 42 49 51 61 75 72 72 72 71 75 70 66 67 70 74 75 74 72 67 65 65 64 60 57 60 60 59 66 64
97 96 83 63 46 47 45 39 38 35 27 28 28 30 29 34 39 40 41 43 46 52 59 71 72 77 82 75 76 74 71 68 75 74 78 81 79 78 77 76 64 60 64 64 67 70 66
96 92 78 54 49 42 44 41 38 34 30 29 29 29 28 36 41 40 42 44 44 44 51 59 74 73 82 83 75 77 75 75 77 77 78 76 73 73 75 77 76 72 74 72 72 67 64
96 86 72 56 43 43 46 41 36 34 32 30 28 29 31 32 39 38 40 41 42 48 51 62 71 77 77 86 84 81 75 78 75 75 78 81 75 72 71 71 71 73 74 76 69 64 61

GFSGBSN_prec_cthk_063.txt.gz
RH
56 54 53 49 49 42 41 38 38 38 39 36 39 40 37 37 39 44 42 46 50 53 42 33 35 37 44 56 53 62 75 86 87 86 94 85 94 90 71 59 79 86 75 73 84 77 75
63 58 55 49 48 46 46 44 39 38 37 37 40 39 40 37 41 46 36 51 53 61 42 36 37 39 52 55 50 44 58 75 84 86 79 93 95 91 73 56 72 74 78 74 85 66 69
69 63 58 55 59 55 49 47 42 38 38 36 39 38 41 38 42 48 36 48 65 56 46 39 42 45 51 57 59 57 48 58 73 78 94 92 98 98 79 59 53 77 87 93 86 59 78
78 68 64 62 62 59 52 47 46 38 36 34 36 37 38 39 39 47 36 48 62 58 47 44 46 48 47 56 65 68 64 59 57 77 85 98 95 98 87 61 63 73 87 97 82 82 82
83 75 73 67 64 62 58 47 47 38 36 33 33 33 35 39 40 44 38 48 62 55 49 52 55 49 53 55 77 76 73 63 62 80 87 99 95 98 85 73 69 74 77 96 92 78 76
87 86 78 72 66 66 62 46 44 37 34 32 32 32 33 38 39 42 41 50 58 54 55 66 64 57 58 64 75 78 68 69 78 86 90 96 97 98 85 76 70 64 64 69 84 82 79
90 93 89 76 71 69 62 46 42 35 31 31 31 32 33 37 37 39 43 53 65 64 65 72 76 61 51 86 79 74 64 74 89 97 96 95 98 94 74 64 54 46 54 58 63 82 76
88 92 93 84 77 69 56 44 39 34 27 31 30 31 32 34 36 37 46 55 64 58 69 74 73 62 60 95 79 69 63 83 96 97 96 98 98 91 78 72 59 55 55 61 66 80 74
91 93 92 87 81 68 53 43 37 31 25 30 30 30 32 34 34 40 48 51 64 61 70 81 80 73 76 96 90 85 86 95 97 99 89 91 96 94 83 74 63 59 59 61 62 66 67
89 94 94 93 78 71 54 43 36 29 25 24 28 30 32 33 36 43 50 50 67 64 76 80 85 80 83 89 94 96 97 96 95 97 89 89 95 92 87 71 62 60 55 52 56 57 51
89 95 93 97 93 70 56 41 34 27 25 21 22 27 32 32 38 47 49 52 67 66 80 79 84 70 78 85 87 87 89 93 91 87 78 87 93 95 92 75 68 63 58 55 60 55 52
83 94 96 99 97 73 55 40 31 26 25 20 22 26 25 29 42 46 48 53 68 75 77 86 82 70 68 84 84 81 79 82 82 80 78 90 89 96 89 77 71 67 66 64 68 62 58
85 95 97 95 98 75 58 40 29 26 24 21 25 32 35 39 43 44 49 58 75 75 69 86 93 82 71 73 75 79 78 83 84 88 95 94 95 95 91 79 70 61 67 72 71 71 62
72 91 99 97 98 77 65 39 27 26 24 23 28 36 36 36 40 45 54 59 71 66 73 79 90 91 81 76 74 67 70 84 90 86 98 98 99 86 81 79 73 72 60 64 65 60 52
72 90 99 98 98 84 73 38 26 26 24 24 32 38 38 39 43 48 59 64 66 67 71 78 83 97 98 91 73 71 71 82 81 86 95 97 90 84 82 79 76 79 78 67 65 56 55
78 83 99 96 99 92 77 37 26 26 25 26 37 42 42 41 45 51 60 57 64 63 72 80 82 92 97 85 77 78 67 79 77 76 82 92 94 87 82 81 77 78 73 69 68 71 54
83 90 97 98 99 97 76 35 26 27 26 29 40 43 41 41 47 53 58 61 63 63 72 77 84 91 94 96 71 68 76 80 74 73 73 81 88 98 84 83 77 76 77 73 70 63 64
90 88 96 98 99 98 77 34 26 27 28 31 40 43 41 44 50 50 55 58 62 64 66 77 85 85 90 88 70 69 78 76 68 69 70 72 88 94 93 84 84 77 73 68 67 71 57
89 88 98 98 99 97 78 34 28 28 28 33 38 38 41 44 51 49 51 57 61 61 60 68 80 79 77 84 77 71 72 78 78 76 79 81 89 94 93 85 81 80 74 71 70 73 72
87 92 98 98 99 97 77 32 28 28 29 31 36 40 42 45 48 48 50 54 59 59 56 59 72 76 75 75 74 73 79 83 86 89 85 83 80 81 80 75 72 75 72 74 74 82 68
88 92 99 99 99 94 69 32 29 28 29 31 32 37 37 41 43 45 51 53 58 58 55 55 58 69 72 71 71 77 80 83 85 86 83 83 84 80 72 70 70 70 69 69 73 64 68
86 96 99 99 99 92 56 32 30 29 30 32 29 31 35 38 40 45 51 54 59 59 59 55 55 58 58 62 67 68 79 78 77 81 84 77 85 77 78 68 66 66 61 62 63 62 63
90 98 99 99 98 86 55 31 29 30 30 32 25 27 29 33 38 43 45 54 59 59 61 59 57 57 60 63 64 65 66 74 78 77 79 82 81 81 77 67 64 60 57 58 59 60 60
92 99 99 99 96 83 53 31 30 30 30 29 25 28 28 33 37 43 43 51 60 59 62 62 59 60 61 58 60 62 61 62 67 76 80 79 79 76 79 68 72 56 49 48 50 52 52
93 99 99 99 92 80 48 30 30 29 31 28 25 27 27 31 34 39 42 47 58 61 63 63 62 60 62 62 61 62 63 63 62 63 63 67 73 77 78 69 59 60 56 56 57 67 61
96 99 99 98 89 76 58 44 32 30 31 26 27 26 28 30 35 37 42 48 53 59 64 62 62 65 65 63 64 58 58 60 65 64 61 61 61 62 62 65 59 63 56 54 54 65 62
98 99 99 96 86 77 58 50 36 31 32 28 28 27 28 32 37 40 42 45 47 54 59 61 62 64 67 67 63 60 60 59 63 64 70 69 67 70 71 68 61 57 57 58 62 69 66
97 99 98 94 84 68 58 51 37 34 35 30 29 29 29 34 40 40 40 42 42 48 52 54 63 66 73 73 72 67 65 68 69 70 72 72 74 71 70 74 70 63 66 66 69 64 62
95 99 98 92 83 60 66 48 38 35 35 31 30 29 30 32 39 39 39 38 39 40 45 51 57 63 69 75 72 75 73 71 74 77 72 76 72 71 67 65 62 58 60 62 63 65 64

GFSGBSN_prec_cthk_066.txt.gz
RH
79 78 75 66 62 59 54 53 48 48 44 38 35 35 36 41 40 40 44 43 47 49 54 44 34 33 34 50 59 54 46 64 83 93 98 92 89 85 88 75 76 84 75 77 78 78 63
84 83 82 75 67 67 59 59 53 52 44 39 38 34 36 40 40 39 45 41 39 63 54 52 38 38 45 47 53 59 45 51 77 91 94 91 93 82 81 81 71 71 82 77 76 80 92
86 87 85 83 75 72 65 64 59 55 43 39 38 32 33 38 38 39 42 40 38 60 62 51 44 43 48 45 50 59 57 49 63 88 97 91 82 98 95 87 69 75 84 84 86 88 83
80 89 88 89 85 82 75 69 64 56 43 39 36 32 31 35 36 40 42 37 44 58 64 49 47 52 53 48 48 53 68 62 59 75 86 92 83 93 98 80 72 73 84 91 83 76 94
78 82 91 94 93 92 81 71 65 56 41 37 35 32 30 33 35 39 41 37 45 57 53 50 63 67 66 54 63 79 79 75 61 72 81 94 93 87 97 91 74 78 93 88 88 81 91
68 79 84 93 95 95 88 79 67 55 38 34 33 32 31 30 34 37 37 38 46 55 55 66 73 77 69 58 83 76 80 79 69 70 90 94 93 90 98 90 79 71 83 88 76 76 91
48 70 77 90 96 95 90 83 69 55 36 32 30 32 31 30 34 36 35 45 55 73 65 68 75 65 56 84 80 85 81 69 75 82 87 97 94 90 90 76 63 60 64 90 87 86 94
35 50 70 78 96 96 92 77 75 55 34 29 28 31 29 30 33 35 38 50 54 69 64 74 76 67 72 92 86 67 69 82 87 91 96 99 90 87 91 86 70 60 63 75 83 84 84
39 39 57 79 87 98 94 90 71 53 32 26 26 29 29 30 33 34 42 52 55 67 68 78 77 69 76 89 92 80 73 86 91 98 97 96 96 92 96 84 74 62 57 67 88 85 87
43 43 45 67 83 99 95 98 76 51 30 25 26 24 30 31 34 39 49 51 57 65 80 81 73 72 76 89 94 90 78 91 92 98 97 92 91 96 92 87 67 68 62 69 71 79 82
41 43 44 56 80 96 96 99 82 52 27 25 24 23 29 31 31 44 49 51 62 67 84 80 71 64 75 90 87 81 86 98 98 90 92 97 98 95 86 70 65 68 70 69 59 61 61
40 46 46 50 73 88 99 98 83 55 25 25 24 26 26 31 38 44 48 54 64 79 73 83 74 65 75 78 83 84 94 94 90 87 90 94 91 90 86 73 68 65 65 64 61 66 72
43 50 48 56 67 79 98 98 79 57 24 25 27 31 34 38 39 44 50 57 73 75 70 80 77 68 72 81 79 76 80 84 86 93 94 95 95 91 86 75 73 66 64 80 77 73 68
49 53 49 53 67 83 95 99 89 59 24 25 31 34 34 37 35 44 54 63 69 63 76 76 79 83 75 73 69 70 78 76 76 81 92 97 95 93 87 76 72 74 58 68 65 72 60
56 58 54 50 68 84 92 99 92 65 24 26 34 36 37 35 38 48 57 61 66 66 72 78 94 97 85 72 69 70 78 80 81 86 98 95 98 95 86 76 73 71 76 63 67 56 69
63 65 62 55 73 85 91 99 92 61 25 28 38 40 39 35 42 50 60 59 63 62 71 77 81 87 82 72 68 71 81 83 82 82 87 87 96 89 86 80 78 76 73 75 81 77 66
74 75 66 59 78 90 95 99 92 53 25 32 41 42 40 37 44 54 60 60 62 62 70 78 78 84 86 70 68 66 76 81 74 72 76 82 79 90 82 81 80 83 90 76 71 76 83
73 77 64 61 85 89 97 99 92 50 26 34 45 42 39 39 50 51 57 55 60 62 68 76 80 81 83 70 61 67 71 72 72 64 69 72 84 97 91 83 79 77 75 74 82 78 69
84 81 68 70 85 91 97 98 90 48 27 36 44 40 39 39 49 48 51 56 61 61 64 71 76 77 78 70 64 66 67 73 69 66 64 70 83 96 96 85 82 86 76 71 69 76 83
84 78 75 80 88 95 98 97 88 46 30 37 43 40 41 40 44 50 46 52 60 59 58 64 70 71 73 70 64 68 71 71 74 69 73 78 85 89 90 83 78 83 79 77 79 88 76
91 77 87 91 93 99 96 96 83 38 31 38 40 41 33 37 40 45 47 52 55 58 54 57 62 68 65 67 67 70 69 81 77 79 79 83 87 85 79 78 79 73 76 76 81 75 79
99 84 99 99 94 97 98 94 77 36 32 36 36 34 35 34 36 42 46 49 53 59 57 53 56 58 60 62 62 65 68 70 71 74 79 76 87 79 80 70 66 67 67 69 71 71 66
92 96 95 94 95 98 98 87 64 34 32 37 34 29 27 35 37 42 43 48 56 57 58 57 56 54 56 58 60 59 65 68 72 74 76 78 82 81 78 67 63 65 59 59 60 60 61
97 98 95 94 99 99 95 85 50 32 33 33 29 27 28 33 36 41 44 48 54 56 54 54 54 55 54 55 56 58 61 60 67 78 78 79 83 85 86 72 77 58 52 53 54 56 57
96 95 90 99 98 98 94 85 43 31 35 34 28 27 27 34 37 39 43 48 54 56 57 56 54 55 55 57 58 60 62 65 65 65 69 78 82 86 88 81 66 66 59 55 56 63 58
94 86 93 98 99 97 93 78 37 33 35 34 27 28 28 31 38 38 40 46 53 56 57 56 57 57 57 61 61 58 64 60 65 64 59 59 61 67 67 71 65 65 59 55 57 70 62
98 99 99 98 99 97 95 62 41 37 33 32 29 30 30 31 37 37 38 42 45 52 54 54 55 59 59 61 64 60 64 59 63 59 62 64 64 67 69 71 63 60 58 55 62 65 64
97 92 96 98 98 94 93 73 52 40 35 31 30 32 31 33 39 37 37 39 43 47 51 51 58 58 63 67 66 68 66 59 61 61 61 65 70 72 73 79 76 68 69 71 72 71 70
95 95 98 97 95 96 95 72 48 39 39 33 34 33 32 32 41 39 39 41 42 46 49 54 57 58 63 67 64 64 65 66 64 70 65 71 70 75 72 72 65 64 63 63 60 61 61

GFSGBSN_prec_cthk_069.txt.gz
RH
69 79 79 78 85 82 82 78 73 66 59 57 41 38 38 37 38 38 35 32 40 34 51 54 50 39 35 43 38 42 48 51 46 81 83 87 98 92 75 71 75 78 80 71 77 83 78
57 60 71 81 81 87 89 86 84 76 64 58 47 37 37 36 36 37 32 32 40 31 50 62 54 46 44 50 45 44 46 53 47 70 94 99 93 98 78 81 80 67 81 75 81 87 87
35 46 60 68 77 82 86 92 88 86 74 61 48 37 37 34 35 33 36 33 39 33 50 63 54 50 54 46 50 46 47 53 55 63 93 98 93 97 85 82 77 73 82 87 83 79 88
40 32 38 57 66 79 82 91 92 91 82 66 49 36 36 35 34 33 33 34 36 39 51 63 54 58 62 59 61 51 53 64 63 63 88 97 92 93 84 78 82 76 83 96 95 95 83
45 41 33 42 60 69 82 83 97 94 83 70 51 35 35 35 32 32 32 34 33 40 52 54 59 72 68 61 66 76 75 73 76 66 81 91 96 98 86 84 89 85 85 93 96 96 93
41 44 42 36 47 59 73 85 88 98 87 72 50 30 35 35 31 31 33 30 37 43 53 61 75 73 60 66 81 79 73 81 87 69 83 92 98 93 92 92 95 84 85 86 95 93 91
40 42 44 44 41 53 62 70 85 93 95 75 49 26 32 34 32 31 32 34 47 54 64 65 70 64 65 78 83 74 81 82 87 76 82 93 88 93 96 88 89 83 70 88 82 88 86
34 43 43 49 46 48 57 62 83 96 98 80 45 25 29 32 31 32 32 41 47 53 61 68 69 69 73 87 88 73 86 78 78 81 88 94 81 80 91 90 91 80 86 91 93 89 85
26 35 45 45 51 49 51 63 76 81 98 87 44 25 27 31 33 32 33 43 46 56 61 72 67 70 76 93 94 84 85 90 83 83 92 95 83 84 92 96 93 82 74 83 89 87 89
22 28 36 50 54 52 51 58 75 77 98 88 42 24 26 32 34 34 40 43 46 57 71 78 71 71 77 83 92 92 86 90 90 89 98 98 90 89 94 93 82 74 68 70 81 93 99
29 27 29 37 55 54 55 56 82 80 90 87 44 24 29 32 34 38 41 44 51 58 76 79 70 66 74 80 92 95 92 95 91 97 93 90 91 91 91 86 82 68 61 68 76 89 82
30 39 34 27 51 60 57 58 71 81 79 79 50 26 31 34 37 38 41 47 54 67 77 81 69 65 70 80 85 90 97 97 94 91 92 85 93 97 93 87 71 73 70 76 80 77 89
46 37 32 37 46 66 60 62 63 73 78 86 53 31 37 41 37 39 44 50 63 67 74 78 79 72 75 80 77 80 88 88 87 93 96 97 96 94 91 82 76 72 80 95 92 88 77
75 60 43 50 44 66 65 62 62 66 79 83 58 34 38 41 36 40 46 56 56 58 76 79 85 75 71 73 71 69 80 85 83 86 92 96 96 88 80 75 76 75 73 78 78 83 68
90 85 74 69 47 72 76 67 68 72 76 84 58 36 41 38 37 43 51 56 57 65 73 85 95 87 72 70 70 74 81 83 81 81 90 90 91 85 78 73 70 68 72 62 64 60 67
97 98 88 76 50 81 82 71 69 82 84 81 46 40 45 39 41 48 55 52 58 62 70 80 88 87 74 65 70 82 80 78 74 77 82 81 91 87 78 75 74 73 66 68 75 74 66
96 96 97 68 67 92 79 87 81 83 80 78 45 46 48 41 44 51 55 51 55 58 66 75 76 83 65 64 65 81 81 83 75 75 82 82 84 85 80 80 81 78 73 68 67 78 81
88 89 85 61 88 90 76 80 87 93 89 68 46 52 50 41 47 51 53 48 54 58 66 72 72 75 68 66 69 68 77 77 70 76 76 79 85 89 86 82 78 77 76 74 80 76 73
82 81 68 77 93 92 83 73 97 93 91 53 48 53 48 44 48 51 49 51 58 58 64 68 72 69 63 59 66 64 72 75 69 66 65 66 76 87 85 79 77 78 77 79 78 77 79
70 70 65 95 97 74 81 87 98 94 89 61 50 52 49 44 48 50 50 54 59 57 60 64 65 67 66 59 57 61 59 65 70 64 61 68 77 77 81 74 73 80 75 73 76 83 76
56 62 86 97 93 64 94 92 98 93 86 54 50 44 37 41 43 48 47 50 55 54 57 60 64 68 66 63 60 63 61 67 74 69 70 76 81 79 78 77 78 74 73 75 76 73 75
60 84 97 93 80 96 99 99 96 92 82 54 49 45 37 34 33 46 46 48 53 55 52 56 62 65 68 68 65 62 64 68 74 74 75 75 81 77 82 75 76 75 68 72 76 75 73
81 90 94 95 91 97 99 99 95 92 56 52 42 38 31 34 37 44 45 46 52 54 55 55 58 62 64 65 62 60 63 64 69 71 71 72 75 78 80 68 67 68 63 64 67 70 72
78 97 98 98 98 99 98 98 96 91 59 43 40 34 30 37 38 39 43 47 49 54 53 54 53 54 54 55 59 59 60 64 64 66 68 72 74 79 85 76 79 62 56 56 62 67 65
85 98 99 97 98 92 97 98 92 80 47 43 42 33 29 35 37 43 48 49 51 53 54 53 55 54 52 54 56 59 59 57 59 63 70 74 78 82 80 79 66 65 62 60 62 68 65
93 95 96 98 97 98 98 97 91 57 43 46 40 31 30 33 39 41 48 49 51 54 55 55 55 55 56 58 57 56 60 58 62 59 57 64 68 73 77 78 71 64 61 60 60 69 65
96 98 98 97 98 99 98 97 87 47 42 48 38 32 33 34 40 40 43 48 47 51 53 54 55 57 56 60 60 56 59 53 61 61 63 64 67 70 72 73 66 66 65 63 64 63 66
95 96 98 95 95 97 97 97 68 46 45 49 38 34 34 35 41 40 40 41 43 46 49 48 54 57 59 63 62 61 59 54 56 57 62 64 68 69 72 79 83 73 72 72 71 71 73
90 98 98 98 97 96 97 96 57 50 48 45 37 41 35 32 43 42 41 42 44 48 47 49 51 53 54 60 59 61 60 61 59 63 58 65 62 67 70 74 73 74 72 74 72 72 72

GFSGBSN_prec_cthk_072.txt.gz
RH
48 44 42 46 49 52 59 69 77 84 88 90 84 70 58 40 35 36 39 39 35 37 35 40 54 52 45 42 36 40 47 45 41 47 48 76 82 86 87 69 71 74 68 82 82 83 81
52 53 48 42 41 48 51 58 70 81 88 95 89 76 63 43 36 35 38 39 36 40 32 42 57 57 52 49 46 48 53 46 42 50 53 85 94 86 89 81 64 67 63 83 85 77 80
37 46 54 50 46 40 51 53 59 73 90 86 92 86 69 42 35 35 38 38 38 37 32 44 58 60 58 50 46 53 58 55 47 50 64 84 95 98 98 82 63 74 73 83 90 76 85
32 37 40 51 50 48 45 53 57 71 75 83 85 89 80 43 36 35 39 38 35 34 36 49 60 60 59 55 54 56 62 65 63 63 71 90 89 98 93 84 71 72 82 86 90 86 86
22 28 35 42 42 49 46 50 59 65 65 83 81 95 82 41 37 36 41 38 33 33 42 51 54 68 61 54 70 77 81 76 74 78 73 93 97 98 98 88 79 80 84 79 95 89 91
25 20 27 32 42 47 52 49 54 59 62 83 84 87 85 41 41 38 40 35 34 38 45 52 67 70 60 67 80 72 74 81 83 89 76 89 98 96 99 89 91 78 84 78 97 96 96
25 22 14 19 32 41 52 55 53 57 62 71 76 82 79 47 41 38 41 38 43 49 54 54 65 66 66 79 83 74 84 89 97 83 78 88 94 96 97 86 80 78 77 79 93 89 91
26 26 26 20 19 30 45 58 55 61 61 73 78 80 73 43 37 39 41 39 42 44 55 60 61 66 70 81 91 81 83 80 87 79 81 87 96 83 94 87 80 82 80 85 86 95 95
27 25 25 26 30 25 31 53 64 62 63 72 79 76 67 50 36 41 39 41 41 48 56 68 63 64 72 84 96 88 86 90 83 80 87 94 93 81 81 81 82 84 79 86 86 94 93
25 25 27 29 27 31 25 37 69 63 67 69 84 69 59 53 35 44 42 42 41 52 64 70 65 61 76 91 95 86 83 86 90 93 94 95 94 92 81 79 84 95 81 73 92 96 93
28 34 34 33 35 31 30 29 67 68 72 71 86 71 59 60 37 43 42 41 45 55 70 69 61 60 77 87 91 91 97 97 95 97 92 90 92 88 90 96 90 78 80 77 86 98 98
36 37 47 46 48 41 32 32 63 76 89 75 80 63 66 64 40 46 42 43 49 62 68 73 61 66 77 78 86 91 96 96 97 98 96 88 89 87 86 84 79 74 82 89 88 93 98
38 45 49 65 73 61 46 38 62 76 80 78 80 68 70 61 45 46 43 47 56 60 66 75 65 68 75 75 80 86 90 94 93 94 97 89 93 94 94 86 80 76 81 97 98 97 89
51 51 66 81 92 84 61 48 58 76 78 81 76 70 70 69 45 45 45 54 53 54 74 72 72 68 71 66 70 76 80 89 92 87 96 97 98 96 88 82 83 81 70 83 90 92 80
52 60 86 94 96 96 64 53 63 77 65 77 71 71 75 60 47 45 49 54 50 58 67 79 83 71 65 63 71 74 75 89 82 87 92 88 98 90 87 79 78 76 76 67 70 74 75
48 70 86 92 95 94 66 53 62 86 74 81 88 79 75 44 49 47 52 53 54 58 69 81 87 75 65 60 71 77 84 80 79 84 81 79 88 83 76 74 73 73 74 73 74 72 68
49 71 81 85 89 87 66 61 95 97 79 91 88 81 81 47 50 52 53 51 53 55 63 71 73 69 62 61 70 81 80 74 76 78 76 73 74 77 73 80 77 71 69 68 69 72 70
67 70 73 76 83 78 62 75 98 95 94 89 92 85 72 51 50 52 52 47 52 55 62 70 69 61 61 66 72 75 75 77 77 76 76 76 78 85 83 77 78 75 70 66 70 70 74
81 80 70 67 74 67 64 91 97 91 88 98 92 90 60 54 50 51 47 50 57 56 62 69 70 61 56 60 67 66 68 67 67 68 69 69 78 82 76 70 70 74 73 71 70 72 78
82 75 67 64 65 70 85 89 95 81 91 97 91 79 59 55 47 50 50 54 58 56 62 66 67 63 55 58 59 61 69 64 62 58 54 60 67 68 74 68 68 73 71 72 74 84 78
80 67 63 59 68 88 90 93 96 95 97 99 85 58 47 48 48 51 52 56 55 56 58 64 67 62 60 60 57 60 59 63 65 57 56 64 72 72 70 69 68 68 70 71 72 73 76
78 70 61 78 89 92 97 95 99 95 98 98 92 58 45 40 40 52 53 57 54 55 57 60 66 65 58 60 54 54 56 58 63 64 67 69 76 71 76 68 68 70 67 68 74 74 74
79 72 90 98 98 98 95 98 98 98 99 97 76 45 38 41 44 52 50 52 53 52 56 60 63 68 67 60 56 55 56 57 62 68 72 70 71 74 79 71 66 70 64 64 68 74 74
78 82 91 98 95 88 97 98 98 98 98 93 62 42 36 39 42 47 49 52 53 53 51 52 57 60 62 62 57 58 58 61 63 65 68 71 70 74 77 68 73 61 59 59 66 69 69
77 87 94 82 89 95 98 97 98 98 95 84 51 39 31 41 42 48 51 54 52 54 54 53 52 51 53 56 60 61 63 59 62 65 65 69 71 77 76 78 70 69 61 61 65 72 69
87 86 92 98 97 98 98 98 97 98 97 74 47 39 31 37 46 48 51 53 52 55 54 54 54 52 54 56 57 58 63 58 62 58 59 65 68 71 77 78 75 64 60 61 62 69 65
87 88 92 97 98 97 98 98 98 95 82 66 50 37 33 37 45 49 52 53 52 54 53 53 53 55 55 57 57 54 56 52 61 59 58 61 62 66 68 71 61 55 56 55 60 55 58
91 89 95 97 98 98 98 98 97 84 73 63 51 34 35 38 48 47 47 48 49 51 52 50 54 55 59 60 60 59 56 55 56 54 56 58 64 66 68 73 68 54 60 62 63 65 65
84 91 95 97 98 98 98 97 89 70 57 64 42 35 36 36 46 47 49 48 48 50 51 51 50 52 54 57 58 58 58 58 57 62 56 60 57 61 62 62 58 60 62 64 65 66 67

GFSGBSN_prec_cthk_075.txt.gz
RH
34 36 41 44 47 47 45 46 48 55 60 64 77 70 88 88 84 72 37 42 44 46 48 39 45 51 53 50 42 39 43 47 45 44 46 50 56 64 62 62 63 80 61 65 69 70 85
27 30 32 33 39 47 48 48 45 51 58 63 82 70 78 90 88 75 39 46 50 48 48 38 45 53 56 57 46 49 52 50 48 48 52 46 54 67 77 78 82 71 68 69 72 74 84
23 26 25 28 35 39 44 53 47 45 56 60 73 67 79 84 84 68 45 48 45 49 45 38 46 58 61 56 50 52 52 56 56 57 55 50 58 76 86 88 82 76 77 74 72 88 90
25 25 23 25 24 31 37 38 48 49 48 59 65 73 76 82 76 59 57 49 44 47 44 41 53 62 63 59 52 57 66 73 74 67 63 66 75 90 96 93 91 82 90 82 69 93 92
30 27 26 19 20 23 31 34 39 50 50 53 63 66 69 80 75 56 55 45 43 44 46 46 61 60 62 56 65 76 81 71 71 77 80 80 93 99 98 93 98 81 90 72 74 87 94
31 33 28 27 24 21 23 31 34 40 48 58 65 64 73 83 71 57 55 45 42 45 47 49 58 67 61 61 73 73 72 78 84 82 87 92 98 97 96 99 90 77 77 77 71 80 91
30 30 30 29 33 32 30 25 23 31 41 60 56 66 69 88 74 62 55 45 46 51 48 51 58 60 60 66 73 68 75 88 89 96 88 88 96 98 93 94 92 69 70 72 74 83 85
30 32 35 36 33 31 32 32 24 21 35 51 66 65 73 83 64 63 55 45 46 49 52 53 58 59 67 68 75 74 75 76 83 77 78 88 92 94 95 97 88 73 75 78 83 89 96
35 33 38 38 37 36 31 30 28 20 29 48 68 71 76 74 69 69 56 50 48 49 53 60 61 59 67 71 79 77 77 80 80 73 78 86 85 86 93 91 96 81 69 79 77 82 93
30 29 28 24 23 25 29 36 33 26 30 51 70 65 72 74 74 70 59 57 48 49 60 64 60 63 68 77 86 86 80 79 86 87 81 82 80 82 83 86 87 81 73 77 86 95 99
36 32 38 40 37 36 34 32 38 31 32 49 72 74 83 70 81 69 56 59 48 52 60 63 59 62 69 79 83 91 93 94 89 90 98 98 88 80 81 75 68 66 76 83 88 90 95
48 45 44 44 50 48 48 54 54 45 40 57 87 79 72 82 85 70 62 56 51 60 59 69 58 62 70 75 85 89 91 98 94 98 99 96 85 78 74 72 80 90 89 87 89 98 98
49 48 50 53 55 55 68 92 92 69 54 67 85 82 85 89 81 70 64 55 57 60 57 72 61 62 67 75 81 87 90 93 94 98 96 95 92 86 83 92 86 87 90 96 97 98 94
60 63 64 60 55 72 93 97 97 77 63 69 90 92 88 89 82 72 64 59 52 49 65 70 59 61 66 71 72 84 91 94 95 98 94 91 95 94 93 81 79 81 81 95 94 91 83
71 79 78 71 69 86 88 93 92 77 62 75 89 90 91 93 78 73 61 57 47 52 68 73 60 63 62 65 77 81 93 88 90 89 91 96 96 91 83 79 77 76 81 72 80 78 88
85 87 88 79 76 80 81 92 91 71 55 90 94 88 98 85 90 70 61 50 52 56 72 77 66 59 60 65 74 87 84 84 88 86 89 85 86 86 81 76 71 71 67 65 71 85 76
98 93 93 81 78 76 75 94 86 74 96 96 90 95 89 95 84 79 59 49 50 56 67 76 68 61 58 63 74 79 74 75 84 82 80 76 76 81 77 87 87 77 70 68 68 67 70
97 98 93 85 78 70 75 87 80 85 98 96 84 96 98 96 89 74 49 47 47 56 65 72 62 56 54 65 71 74 73 75 78 76 76 73 76 83 81 75 73 74 74 71 74 71 71
93 97 95 89 76 72 78 73 85 98 98 89 98 98 98 96 85 59 42 42 51 57 65 69 58 54 53 65 69 66 67 70 71 70 69 65 73 77 73 68 70 70 66 62 62 67 71
94 93 92 83 81 76 75 72 89 97 98 92 98 98 98 91 68 44 46 47 57 58 65 69 57 50 57 59 63 64 63 62 63 60 62 60 68 63 71 64 65 69 70 68 66 73 70
87 86 81 82 78 82 76 70 91 98 98 93 97 97 96 74 55 44 47 49 59 62 66 66 61 51 52 60 58 63 64 62 59 52 50 56 67 67 66 67 66 67 66 68 71 69 72
83 80 84 81 81 82 77 71 94 97 98 98 97 97 88 52 43 44 51 56 56 63 66 63 62 55 55 57 52 59 60 59 59 55 57 62 70 65 68 63 62 65 64 67 69 67 67
92 94 92 89 86 75 74 79 92 95 95 95 97 96 69 49 44 47 52 55 56 60 65 65 63 58 60 57 54 55 49 50 57 57 62 63 66 67 71 66 60 63 58 61 59 62 66
97 93 87 83 72 71 75 78 83 94 95 98 96 92 65 46 44 49 49 54 58 55 63 63 65 61 59 56 54 55 54 55 57 60 62 63 67 69 71 62 68 54 52 54 60 62 62
89 85 79 76 78 81 78 86 95 94 97 96 93 71 46 41 47 52 53 56 58 58 57 62 60 61 62 56 56 60 60 56 59 60 63 65 67 73 70 70 58 57 58 62 62 65 65
86 91 90 94 98 98 97 96 96 95 96 92 79 58 39 37 52 55 56 56 58 60 59 56 54 56 55 56 56 57 61 57 61 63 62 65 68 71 74 76 71 57 59 60 60 64 62
85 92 97 97 98 98 98 98 97 97 96 91 68 47 35 39 50 55 56 55 53 56 60 58 53 54 52 53 55 54 58 55 63 60 60 62 63 69 69 69 55 51 53 54 59 54 57
73 88 95 97 97 97 97 98 98 98 97 86 59 38 32 39 52 52 52 54 53 54 55 54 54 53 54 53 53 54 52 53 55 52 54 57 62 63 65 66 65 52 53 55 57 59 60
72 84 92 94 96 98 97 96 96 96 92 80 58 36 34 37 50 52 53 55 54 54 53 52 49 50 51 53 52 54 54 54 54 57 53 55 52 57 58 57 54 55 56 58 58 60 61

GFSGBSN_prec_cthk_078.txt.gz
RH
25 26 27 26 26 32 37 36 37 47 50 51 53 58 71 74 73 76 80 64 49 61 64 56 49 54 58 52 46 45 49 47 47 45 45 44 46 53 55 53 54 58 45 52 50 53 59
29 28 26 26 25 26 26 31 38 39 44 53 51 54 64 71 75 73 80 65 44 55 67 54 47 53 59 56 50 47 46 52 49 50 50 49 49 54 64 64 68 56 47 46 57 58 61
42 38 35 30 27 26 25 27 27 36 42 36 50 53 57 78 63 72 77 63 46 52 66 52 45 54 60 56 52 49 48 49 56 59 62 61 59 60 64 64 60 60 70 60 59 60 67
42 41 41 40 37 33 29 25 24 28 33 36 39 55 53 60 63 67 75 72 59 55 65 50 47 58 61 54 49 50 59 66 74 79 80 80 69 66 62 66 81 83 81 72 59 63 77
45 44 42 42 41 39 32 30 26 25 26 32 35 43 57 64 80 82 76 85 57 52 62 51 54 62 56 50 54 61 63 65 73 75 80 86 87 77 87 87 97 93 88 72 82 62 79
46 45 43 43 43 41 40 35 32 26 26 23 33 44 57 68 73 73 74 81 59 50 68 58 57 57 54 58 59 66 66 71 84 84 89 91 90 90 99 98 97 88 88 91 83 64 76
44 41 40 40 38 41 37 36 33 32 30 24 23 40 54 61 70 75 69 81 76 62 68 49 49 53 58 60 64 68 67 69 85 85 88 89 88 94 93 98 95 93 82 94 73 64 72
47 46 46 42 40 39 39 38 34 30 32 30 25 35 51 67 74 73 73 68 69 64 65 53 52 55 61 63 69 70 67 70 71 73 74 84 83 90 92 97 96 99 76 92 78 74 82
47 47 45 42 37 38 39 39 39 38 30 28 25 37 52 68 76 80 88 70 65 65 63 51 58 56 61 65 76 74 66 65 71 72 76 82 78 86 87 91 99 91 68 73 80 86 86
50 45 47 42 39 37 36 31 31 33 33 35 32 37 57 61 77 66 71 75 67 70 68 57 62 59 67 71 79 81 70 73 79 85 83 84 77 80 91 98 91 85 74 70 80 80 90
41 44 45 43 40 39 40 40 41 37 35 39 38 40 50 65 77 73 91 79 67 75 66 60 61 60 68 75 77 81 88 92 90 94 95 91 83 84 93 95 86 84 79 88 88 88 88
49 51 56 57 57 58 59 55 59 55 61 59 43 52 50 60 85 80 86 77 68 77 59 65 61 62 68 75 74 84 91 92 97 98 98 95 84 83 86 87 85 83 79 87 86 88 91
47 58 68 76 83 80 79 63 71 80 91 82 63 65 66 66 89 84 89 80 84 72 51 70 62 59 64 71 74 85 90 96 99 95 94 90 88 85 80 81 80 79 74 95 96 96 95
64 73 86 91 90 92 81 84 86 82 80 81 82 69 65 80 93 93 90 86 76 55 58 68 56 60 63 69 74 84 89 98 95 87 91 89 91 83 77 90 88 86 91 91 94 93 92
78 87 95 94 93 90 86 83 82 86 94 79 78 68 71 97 94 91 94 83 63 48 57 68 54 58 62 65 80 78 87 95 90 91 92 98 98 98 94 84 82 87 90 76 76 79 89
84 94 95 93 93 89 89 79 83 93 98 98 79 71 93 93 97 96 90 75 64 52 65 64 56 53 60 70 78 79 79 84 95 94 88 88 93 88 84 80 76 75 71 75 86 89 84
87 98 95 93 92 88 83 78 87 97 99 91 87 91 98 98 98 98 88 71 57 58 69 68 61 58 65 76 76 76 78 81 89 86 82 79 80 85 79 81 81 72 69 67 67 73 75
98 96 94 89 91 87 85 82 90 94 93 90 98 97 98 98 98 95 85 62 53 59 67 65 56 57 64 72 68 74 75 81 79 80 77 74 80 84 83 78 79 77 71 64 66 65 66
92 93 92 85 85 88 87 87 84 88 94 97 98 98 98 93 97 94 70 54 60 59 64 59 56 53 59 70 73 71 73 75 72 71 70 65 71 76 75 70 66 67 64 61 59 60 64
89 96 93 84 80 86 87 89 74 88 97 97 98 97 95 96 97 76 60 54 61 60 62 54 53 53 59 66 66 68 71 71 70 67 66 63 65 61 66 58 62 66 63 60 57 64 61
94 98 95 86 78 80 83 78 73 93 97 94 93 98 95 97 87 64 58 55 57 61 62 54 52 52 56 65 62 65 65 63 59 56 57 59 67 66 64 62 60 60 59 58 60 57 58
97 98 98 93 92 83 74 67 78 88 91 93 96 98 97 66 65 58 60 56 58 63 60 56 53 53 55 57 56 63 61 58 56 49 54 59 67 62 64 59 57 58 57 58 58 57 56
95 97 91 83 79 70 63 69 74 81 88 97 96 96 88 60 55 57 59 57 57 64 64 59 56 53 56 57 55 59 58 58 56 58 58 59 63 64 65 59 54 56 54 57 58 58 59
89 87 79 77 70 62 56 56 67 84 88 94 96 91 66 55 52 55 57 57 59 64 65 63 59 55 58 56 53 55 55 55 56 60 58 58 61 64 66 59 62 53 52 53 59 60 58
84 82 78 75 67 61 57 66 79 87 91 95 95 89 66 52 51 55 60 61 60 63 67 65 63 61 58 55 55 57 56 50 55 54 58 57 60 67 65 67 54 52 53 56 57 59 62
69 82 80 78 71 77 82 76 83 90 97 93 91 66 49 45 53 57 61 59 59 59 63 65 64 62 60 56 53 55 57 54 57 56 56 58 60 64 67 69 65 55 56 57 58 61 61
62 73 84 81 80 88 90 95 97 98 95 92 84 52 42 46 51 56 59 59 58 57 60 60 58 58 57 55 53 52 54 50 54 53 56 58 56 61 61 65 55 49 49 50 54 49 50
66 77 87 92 93 90 91 94 95 96 90 82 65 49 37 41 50 55 54 58 54 52 57 54 53 53 54 54 51 51 50 50 50 48 49 51 54 56 55 55 58 47 48 49 49 51 54
58 77 84 85 88 87 88 92 94 96 93 81 59 39 35 41 50 54 55 54 54 53 57 55 52 52 51 52 50 52 51 50 50 50 48 49 48 51 52 49 47 48 49 50 51 52 55

GFSGBSN_prec_cthk_081.txt.gz
RH
42 46 42 43 37 35 33 31 30 29 36 44 41 45 50 49 55 57 72 75 69 58 52 50 57 51 66 55 49 49 50 52 47 42 41 42 44 48 53 53 53 53 37 40 43 48 50
49 47 45 43 45 43 42 40 35 34 37 33 37 42 42 48 52 58 63 70 60 62 63 61 66 53 62 58 51 49 45 48 44 44 46 48 50 53 56 57 61 55 52 47 43 42 50
50 49 48 47 45 46 44 41 40 38 32 30 29 31 45 43 53 61 60 61 68 78 64 64 64 55 66 54 51 45 42 41 46 50 55 59 63 67 65 62 63 62 63 58 52 43 50
51 51 51 51 49 47 45 43 41 36 32 30 30 27 38 41 52 58 56 64 69 77 73 67 60 64 69 57 45 42 46 55 58 58 63 70 76 81 75 65 60 65 73 68 42 45 40
53 52 49 47 45 46 44 42 40 36 32 31 30 24 29 43 48 61 62 60 67 68 60 58 64 68 67 48 45 47 54 55 57 65 71 79 84 87 88 72 70 64 65 67 50 47 44
58 57 55 53 52 51 44 42 40 40 37 34 32 29 25 42 49 67 59 67 71 82 72 67 68 73 59 49 48 55 59 53 59 73 74 81 87 89 85 92 94 85 88 83 70 46 50
66 64 62 59 56 53 52 48 44 40 39 37 33 31 32 37 47 60 68 64 62 66 82 68 58 66 60 57 54 61 59 54 59 70 75 81 91 93 90 94 94 95 96 84 67 56 52
68 64 61 62 55 52 49 43 45 45 42 40 36 33 38 53 52 59 69 64 70 84 79 70 69 63 60 61 61 65 62 59 63 69 75 81 84 83 90 98 98 90 95 95 94 67 74
65 58 64 59 58 56 49 46 41 37 39 40 37 39 39 58 59 57 78 73 78 77 75 64 65 61 60 62 65 73 66 64 68 72 73 80 73 84 91 98 98 97 95 91 98 88 75
55 53 58 47 49 58 59 61 62 58 50 48 43 42 39 53 60 52 78 67 72 69 76 74 68 61 64 64 71 75 77 72 84 82 81 86 81 84 85 96 96 90 79 86 85 83 98
52 51 56 56 66 76 84 85 80 70 64 63 56 52 44 56 59 50 65 84 85 82 91 72 73 60 63 68 71 76 80 90 92 96 93 76 85 83 94 98 93 81 71 84 89 89 88
49 58 71 85 89 93 87 86 86 74 73 74 63 63 62 51 60 54 70 85 87 79 88 80 67 61 65 70 73 80 89 97 98 96 92 77 81 95 89 88 88 90 87 90 89 87 92
57 76 85 94 96 89 94 89 86 88 91 95 92 71 73 74 71 63 82 94 91 93 71 76 63 57 60 69 76 86 94 99 94 90 85 81 85 88 83 86 83 86 81 94 95 89 89
87 88 91 95 96 89 91 87 85 84 87 95 85 65 74 73 75 68 83 97 93 73 68 65 57 55 60 66 77 81 94 93 88 88 88 89 81 83 80 82 80 77 79 84 89 92 95
96 94 97 95 98 97 89 88 87 85 94 98 98 70 69 72 68 78 92 96 79 70 63 66 52 52 57 67 78 87 94 94 90 93 97 92 84 83 81 82 83 94 87 74 81 82 83
95 93 96 99 96 90 84 88 85 91 98 99 80 77 71 71 79 83 98 90 78 69 63 54 49 49 56 72 78 82 92 98 98 93 95 97 95 85 86 91 85 87 80 79 84 84 94
93 90 95 97 96 87 80 85 90 95 97 99 85 78 85 81 83 97 93 88 81 64 65 54 52 57 63 71 76 83 92 91 93 88 86 81 81 91 83 86 85 73 74 66 65 70 75
90 94 95 96 93 82 79 84 91 97 98 97 88 89 87 95 98 97 96 80 63 69 70 60 53 62 66 70 75 82 87 90 83 82 81 76 82 89 84 80 77 76 67 58 57 57 59
91 98 97 87 82 77 75 80 83 90 97 89 84 90 98 98 98 97 84 66 67 70 66 61 59 59 61 69 72 75 81 79 77 74 73 71 76 84 82 74 75 73 68 61 55 54 57
98 98 97 89 77 77 77 79 78 85 81 80 85 94 98 98 97 90 74 62 69 69 66 59 60 56 62 67 66 71 72 71 70 70 67 63 68 63 68 65 68 67 65 59 55 59 57
98 95 86 83 74 71 66 61 60 72 78 85 91 96 95 98 97 73 63 65 67 70 65 58 56 56 61 64 64 68 65 63 61 62 60 61 67 65 64 64 63 63 63 60 58 56 55
95 76 69 66 58 51 47 50 59 70 78 88 90 92 91 97 86 61 59 63 67 68 64 59 55 54 55 57 57 59 56 52 53 50 57 56 66 62 63 59 58 60 60 60 58 58 58
74 67 63 57 50 45 44 46 58 72 75 82 89 90 74 62 63 53 61 65 64 65 64 58 55 51 54 55 54 55 55 52 53 53 53 55 59 60 62 55 53 55 55 58 60 59 57
65 68 67 64 54 51 54 55 60 73 84 83 80 75 51 48 49 56 59 63 63 65 64 59 53 49 54 53 53 55 53 53 53 51 49 51 52 55 59 52 57 49 49 50 52 58 60
64 64 65 66 63 56 53 59 66 79 85 85 83 77 44 44 52 55 62 63 63 64 62 60 56 53 52 50 53 54 54 50 52 52 52 49 51 57 58 59 48 49 49 51 50 51 55
61 65 64 66 70 72 72 70 73 81 86 84 76 46 38 44 53 59 61 62 66 65 63 60 58 56 53 51 48 52 54 51 53 51 49 49 50 53 56 60 54 49 49 49 48 50 51
55 66 70 74 71 78 79 82 86 88 88 82 67 40 36 44 51 57 58 61 61 61 64 61 59 57 54 52 49 49 51 49 49 47 49 50 51 55 52 58 50 44 43 43 46 41 44
40 61 68 71 75 80 81 84 87 87 81 73 61 44 33 39 48 51 52 56 56 55 56 58 58 55 57 54 50 50 49 50 49 46 46 46 48 49 49 52 52 42 42 42 42 43 45
29 51 63 69 70 74 79 83 84 85 82 77 60 41 32 37 46 52 52 52 51 50 51 51 49 49 50 51 49 50 47 48 46 47 45 47 43 46 45 43 41 43 44 43 44 45 46

GFSGBSN_prec_cthk_084.txt.gz
RH
55 54 52 51 48 47 48 47 45 42 36 35 35 36 37 41 46 53 58 58 59 54 49 53 56 50 50 53 51 58 59 55 48 41 39 38 40 43 46 48 50 46 39 42 42 45 43
57 56 54 54 53 52 51 47 45 43 39 42 42 36 33 33 41 47 55 60 63 64 53 58 58 54 56 51 53 56 50 49 43 37 36 39 43 46 48 50 51 50 53 50 50 44 41
62 60 59 58 56 56 58 53 49 44 42 42 37 36 34 33 43 50 59 65 65 61 59 62 54 45 49 55 52 54 47 37 41 41 42 47 52 54 56 56 55 56 52 47 48 46 51
67 66 64 64 65 61 59 59 55 56 45 44 42 33 31 29 44 52 57 65 71 62 59 60 58 58 57 56 52 53 44 45 47 41 47 55 62 65 67 69 67 67 61 64 36 42 44
72 73 75 72 70 69 69 61 56 52 54 45 44 36 32 30 38 50 68 63 66 71 62 64 58 56 55 60 55 53 50 51 49 47 55 58 65 74 79 82 80 69 56 55 50 49 46
75 76 74 77 70 67 66 64 56 47 44 40 38 39 33 33 30 57 49 56 77 65 82 59 54 64 70 62 56 51 53 54 50 54 63 65 74 76 78 84 80 75 83 69 56 52 56
80 77 74 70 72 74 65 69 60 52 44 38 32 32 29 44 44 60 58 61 88 75 62 61 63 67 65 59 57 57 59 59 57 57 63 67 75 75 82 89 87 87 91 93 87 70 65
77 68 64 69 74 70 62 64 67 65 62 52 38 32 28 49 79 84 62 60 61 74 77 84 67 66 62 61 61 64 64 59 58 59 60 69 68 65 77 84 91 96 96 81 81 76 66
73 54 58 56 69 82 85 87 90 91 82 76 59 47 37 40 60 88 66 72 77 73 69 62 64 63 64 62 64 69 75 67 67 70 70 75 64 68 83 90 98 98 97 91 89 82 71
61 50 71 82 92 96 96 97 98 90 87 80 72 66 55 43 68 73 77 70 77 67 66 64 69 72 67 63 68 74 79 74 80 78 73 75 70 75 87 93 97 98 95 95 94 88 77
73 76 92 90 92 96 99 98 89 93 83 69 71 69 67 58 66 67 67 63 79 82 86 70 78 73 62 68 73 79 82 88 91 85 85 67 77 90 97 93 93 85 89 95 91 89 74
80 88 97 96 92 93 94 96 98 86 79 82 87 87 81 68 54 57 65 67 76 84 73 81 81 64 66 71 76 85 91 92 91 86 80 76 80 88 89 80 75 80 88 96 91 83 95
80 91 94 92 93 94 96 94 87 80 83 91 96 95 85 84 70 62 65 76 83 85 78 88 70 60 64 75 82 88 87 85 83 82 79 79 83 83 87 92 91 93 91 91 92 85 89
83 92 89 91 95 94 91 86 85 84 90 92 96 86 73 73 76 70 81 88 91 89 79 75 61 60 66 73 78 87 86 88 87 89 88 90 80 81 84 87 94 87 90 88 82 89 94
89 89 90 95 98 95 84 82 84 90 95 98 95 88 72 67 69 78 82 94 91 81 66 68 58 65 68 76 84 85 89 90 91 89 90 85 81 77 79 82 87 84 91 78 82 78 75
93 95 98 99 89 80 77 81 87 96 98 98 88 64 70 66 69 79 83 97 89 65 69 56 54 56 67 71 81 82 96 97 98 91 86 85 91 88 97 94 95 93 83 83 79 83 88
91 90 87 83 74 72 76 79 92 97 96 74 66 65 72 74 74 81 95 92 78 75 60 56 56 58 63 72 76 80 91 93 92 91 83 78 79 92 87 89 87 77 73 69 66 66 65
88 88 79 67 65 66 73 77 83 86 90 83 74 75 87 84 83 96 98 90 81 80 69 63 58 62 64 69 74 77 84 86 85 87 82 77 75 84 80 75 74 75 61 56 56 55 54
77 78 71 66 63 64 60 63 66 72 80 80 78 78 90 94 97 98 86 73 87 80 68 64 61 61 64 67 69 74 77 77 76 76 76 72 73 80 75 69 65 63 59 51 48 47 52
66 65 59 51 49 45 45 49 55 54 66 68 76 84 95 97 97 82 68 86 83 75 67 61 60 61 62 62 63 71 71 71 70 69 67 65 66 65 62 66 65 60 58 52 47 52 45
62 65 56 43 42 40 40 46 55 63 69 74 85 90 90 96 72 63 73 82 71 69 61 56 56 57 57 57 60 64 64 62 60 62 62 61 69 67 60 58 60 59 59 55 53 49 48
55 56 55 48 43 43 49 54 62 74 76 72 70 81 92 78 54 60 67 75 68 65 57 53 52 54 52 53 55 58 55 53 51 50 56 55 65 59 60 49 51 54 54 53 51 50 49
55 54 51 48 45 46 51 58 69 75 74 75 72 47 47 56 50 54 66 67 64 60 57 52 49 49 51 55 54 54 49 47 48 48 48 50 53 57 57 49 45 46 48 50 51 51 50
60 56 48 49 50 52 54 60 72 77 75 69 60 38 35 47 47 53 63 62 62 58 53 52 47 46 52 53 53 52 50 48 46 44 41 42 45 48 50 46 52 44 45 48 48 52 53
57 58 58 53 54 56 59 64 71 73 73 68 42 32 33 41 47 51 58 56 58 58 55 53 49 46 48 49 49 47 45 45 46 44 44 42 43 46 47 43 41 43 44 47 47 46 50
50 56 58 59 59 59 60 64 72 70 64 53 34 29 30 36 44 50 54 54 54 56 53 53 51 48 46 43 41 44 44 44 44 44 43 43 43 43 44 47 42 43 44 45 44 42 44
38 55 56 58 61 64 64 66 68 67 59 49 38 30 29 34 45 49 51 55 54 54 54 54 52 50 47 44 41 40 40 43 39 38 41 41 40 44 42 43 40 40 40 40 40 35 40
26 44 57 58 60 63 65 65 66 62 58 51 43 31 27 32 40 43 47 52 53 53 52 53 53 51 51 47 43 43 41 42 41 39 40 38 38 39 40 41 37 38 40 38 37 38 40
23 26 44 58 58 59 64 67 68 64 60 56 51 40 31 31 36 40 43 48 48 49 50 51 50 47 47 47 44 41 40 40 39 36 39 39 37 37 37 35 36 39 40 40 40 40 42

GFSGBSN_prec_cthk_087.txt.gz
RH
66 66 68 68 68 69 68 64 61 55 53 50 50 48 46 40 37 39 50 62 60 67 64 57 54 51 48 45 41 36 41 46 46 42 43 40 39 39 41 40 44 44 43 39 39 39 41
74 75 76 76 75 74 72 70 69 61 62 55 53 50 46 47 38 44 41 58 61 69 65 60 55 54 51 41 44 43 42 43 48 45 44 39 39 41 40 39 42 43 48 51 51 44 47
81 83 86 86 86 85 81 80 78 75 67 68 57 55 49 40 41 50 47 61 63 68 66 67 59 54 58 47 46 45 41 45 47 43 44 43 43 44 44 45 45 44 47 47 43 44 47
85 85 80 81 79 85 83 82 80 78 68 59 64 54 53 43 39 47 53 71 71 73 79 76 56 63 56 46 45 50 49 48 44 44 42 46 52 54 54 54 52 52 52 51 37 41 43
82 79 70 59 54 59 63 64 66 66 67 56 48 43 43 38 36 37 57 67 71 64 79 72 68 70 53 46 54 56 51 50 45 47 46 50 57 59 63 67 68 67 64 57 48 54 52
72 61 49 42 53 66 71 77 76 70 59 56 45 37 37 34 39 37 69 58 88 91 76 77 77 68 57 58 52 51 51 53 48 50 54 56 64 64 67 78 72 65 68 64 56 60 64
72 73 64 70 75 76 82 90 93 89 83 70 52 40 30 38 52 61 65 69 83 77 76 83 74 61 64 55 50 55 56 54 50 54 56 57 68 67 65 70 74 73 71 67 65 71 76
86 84 82 83 85 83 89 96 97 94 90 82 74 61 38 32 56 78 67 80 83 78 91 81 78 82 62 58 57 61 62 59 56 57 60 66 73 66 65 72 79 85 89 81 74 71 77
99 82 86 86 84 85 88 94 98 96 87 83 70 62 60 42 45 94 84 88 81 69 75 79 83 65 58 59 62 67 62 66 64 62 65 69 63 63 70 81 87 90 96 91 90 80 78
99 96 89 83 77 81 83 88 89 85 81 85 68 58 55 57 54 83 96 77 85 89 91 78 66 65 63 67 65 63 71 72 75 76 72 66 64 70 82 92 96 96 85 82 88 94 83
96 94 87 76 77 79 84 90 96 88 80 81 75 77 60 62 61 71 99 95 86 92 84 77 73 73 71 71 66 71 75 85 89 84 78 64 68 79 82 87 97 88 88 80 81 85 95
87 85 81 76 79 87 87 85 83 80 82 86 90 90 68 68 47 70 82 67 86 89 89 81 77 75 69 62 67 81 86 87 85 83 73 71 68 78 75 80 89 95 98 90 90 96 95
66 71 74 80 83 87 82 76 74 79 85 91 94 95 69 72 52 57 61 65 90 92 79 82 77 70 58 65 77 82 85 83 83 80 76 68 68 75 82 96 89 95 98 95 98 98 79
57 62 64 72 77 81 78 76 85 89 94 97 95 74 70 68 58 56 64 91 95 82 91 83 70 58 61 68 80 87 91 89 81 82 80 77 78 75 80 85 86 88 90 97 89 86 88
61 60 64 72 79 83 87 94 96 98 97 87 79 71 66 61 62 70 92 97 95 90 85 69 56 59 67 75 85 85 84 85 85 82 88 84 84 74 82 83 88 87 98 91 96 84 90
55 60 65 68 69 73 76 81 82 84 72 64 57 61 63 68 90 98 98 97 93 84 68 56 55 59 73 80 88 84 86 91 86 81 81 80 90 87 89 85 88 93 87 85 83 90 83
56 59 57 56 57 57 60 59 53 52 52 52 50 62 83 90 92 96 98 98 86 74 61 60 58 63 73 80 81 81 88 91 90 82 82 84 87 92 96 92 87 83 75 70 69 70 81
58 57 53 51 53 55 53 54 53 43 40 46 51 61 75 86 86 95 98 88 77 67 57 60 61 66 72 78 81 80 83 81 79 78 76 73 72 78 76 73 71 75 67 64 67 63 61
53 55 55 56 55 53 51 55 66 65 56 52 57 64 76 82 88 96 88 88 77 66 65 66 64 68 73 74 76 76 74 70 69 74 72 66 64 72 67 66 65 64 59 53 55 57 55
48 51 52 53 53 60 68 70 70 75 72 69 82 87 89 89 90 85 82 85 74 66 64 62 64 66 67 66 67 68 65 63 62 62 62 61 60 64 66 69 66 66 60 50 50 55 47
42 48 48 47 52 60 69 74 73 67 60 57 70 77 73 76 66 66 73 73 65 65 59 57 59 61 60 61 61 59 57 53 52 55 55 56 62 60 53 53 56 53 53 49 49 42 43
40 44 47 46 47 53 60 69 68 62 53 47 50 54 52 52 53 60 64 60 58 57 58 55 54 53 51 55 54 51 48 45 44 48 48 48 55 51 53 44 46 45 44 45 46 44 40
43 43 48 50 50 51 59 64 64 57 49 34 33 45 39 43 48 52 58 57 56 56 53 50 50 50 51 51 50 47 44 42 43 42 41 43 46 50 49 41 41 44 41 42 44 44 46
48 43 49 52 51 52 58 61 59 55 37 33 29 34 35 38 43 49 51 50 50 50 48 47 46 48 50 49 46 44 44 44 43 40 35 36 39 43 50 40 51 39 39 41 42 45 45
37 49 47 50 52 53 58 60 57 53 40 28 27 30 33 34 39 46 45 45 44 45 46 45 44 45 45 45 45 43 42 42 41 39 38 37 38 43 47 38 35 36 37 40 40 39 40
26 39 49 52 54 53 58 59 57 49 36 28 25 27 32 34 38 42 43 43 44 43 43 45 43 41 40 38 37 40 39 39 38 40 37 38 38 41 39 46 39 38 37 38 36 36 35
23 25 37 50 56 58 58 60 57 50 43 38 31 28 31 32 36 40 42 42 44 44 44 44 44 43 40 38 35 34 36 36 36 34 35 36 35 38 40 41 36 36 37 36 37 39 33
20 24 25 34 48 55 59 61 59 53 48 44 39 31 30 33 38 38 39 43 43 43 44 45 45 44 44 42 38 37 35 36 35 33 33 34 33 34 34 35 35 33 34 34 35 33 34
21 21 24 26 33 48 53 58 60 59 55 51 42 37 34 34 36 39 39 41 42 43 45 45 45 42 45 43 38 35 36 34 33 31 34 34 32 36 32 33 30 31 33 34 35 35 36

GFSGBSN_prec_cthk_093.txt.gz
RH
62 68 68 74 78 71 68 65 72 71 65 64 63 66 70 82 75 68 60 54 55 61 75 78 95 82 63 51 47 44 37 34 35 35 35 31 31 32 30 30 30 33 33 35 37 39 38
66 79 85 85 88 79 77 75 70 71 73 68 67 58 56 53 75 69 58 52 55 62 68 78 73 83 74 59 53 48 42 39 38 34 33 32 32 30 29 29 28 28 29 29 31 32 34
76 80 94 98 98 96 89 85 73 69 75 76 74 69 63 45 41 67 60 52 50 55 74 72 93 89 83 73 54 51 48 46 46 40 37 34 33 31 32 32 33 34 35 34 29 31 35
59 68 88 97 98 98 97 94 90 74 79 80 79 73 65 42 40 52 60 45 55 60 77 78 95 91 80 67 63 54 46 49 48 40 39 36 33 33 35 35 36 40 41 45 33 36 39
49 56 63 73 91 90 84 86 79 77 80 86 87 81 72 45 41 48 57 52 69 68 76 86 87 79 85 74 65 56 48 49 45 43 39 36 36 38 38 41 46 47 54 53 48 45 48
46 44 48 61 64 69 68 74 72 72 80 80 93 90 81 51 47 57 79 91 96 82 96 93 93 95 87 79 66 56 53 49 47 47 44 42 41 43 43 49 54 52 58 57 61 55 60
51 57 55 63 65 74 70 71 75 73 82 84 87 85 85 53 50 74 96 91 99 98 96 96 95 82 85 78 66 57 52 53 54 52 47 47 48 49 45 50 55 63 71 77 71 74 76
61 61 59 64 72 80 79 77 79 82 81 71 73 77 78 50 51 92 93 94 93 98 97 87 82 78 76 70 65 59 55 55 56 56 52 52 51 44 48 53 62 66 73 72 64 77 76
59 62 56 63 73 86 83 76 73 73 77 64 67 67 63 52 51 92 95 99 96 99 98 98 93 88 83 74 67 61 59 61 60 59 55 55 47 44 52 61 70 74 81 80 81 75 79
59 60 65 70 81 86 91 84 75 67 67 67 63 57 54 50 47 77 96 97 93 93 97 98 96 89 84 78 65 66 63 64 62 61 62 58 48 52 58 67 75 80 79 81 90 92 84
64 58 63 68 84 93 94 94 88 79 75 79 75 57 55 50 55 79 89 97 98 79 93 96 92 94 80 71 70 73 68 70 68 68 68 60 54 58 64 68 78 88 91 96 97 90 89
66 69 55 54 76 82 86 88 90 95 97 93 88 61 51 54 69 80 93 93 94 84 89 91 87 77 73 75 74 71 73 68 64 67 69 61 61 61 63 66 73 78 92 98 96 94 96
71 69 69 49 60 66 66 64 75 85 87 90 69 46 51 66 75 80 86 87 88 90 89 83 84 74 72 71 72 74 72 68 73 69 67 63 66 59 64 71 70 84 96 97 96 97 94
70 71 68 58 44 49 49 50 55 60 56 51 48 52 57 64 71 81 92 94 86 92 89 81 78 73 75 72 76 76 77 70 70 71 68 71 67 65 66 75 85 92 98 98 97 97 97
61 61 61 56 30 39 39 45 40 37 42 41 46 55 61 62 64 82 83 88 90 94 79 74 77 74 77 75 74 75 73 67 72 74 78 82 75 70 78 84 89 90 98 95 98 99 93
55 65 57 53 39 34 38 39 41 40 36 39 38 42 45 55 69 77 84 87 91 80 71 69 65 69 75 72 74 79 73 76 77 82 81 85 91 76 77 84 83 92 88 88 93 96 97
53 62 57 46 41 34 49 46 48 55 56 56 56 58 60 65 74 78 83 90 86 72 63 65 62 65 68 73 78 77 73 75 78 84 86 90 95 79 83 82 78 80 81 82 79 83 92
48 55 61 49 44 36 42 49 61 61 58 69 76 72 75 75 72 77 75 68 68 66 62 63 64 66 69 69 66 66 68 72 73 74 78 80 82 86 78 70 67 66 68 65 77 78 80
43 45 54 58 40 39 36 44 52 55 58 62 69 59 55 58 64 62 62 62 65 64 63 62 65 67 65 63 64 61 60 60 64 69 69 67 66 72 60 61 58 59 55 53 55 65 74
41 42 46 57 49 37 34 37 39 47 55 58 55 55 53 54 54 57 62 67 66 61 62 63 62 60 60 58 57 60 55 51 54 58 58 59 58 57 63 60 56 58 52 47 48 61 66
35 40 42 52 56 40 33 30 34 36 45 52 53 53 54 56 52 53 56 56 55 56 54 53 54 56 55 55 52 50 48 48 48 51 52 53 53 51 47 44 46 46 49 48 49 46 53
26 33 40 44 55 54 35 30 30 29 35 46 46 47 50 49 47 50 49 48 47 48 48 50 53 53 53 56 55 50 47 43 39 40 40 42 47 44 51 39 41 43 43 45 47 47 49
23 26 31 39 48 54 49 31 26 27 27 31 39 43 45 42 44 45 46 42 42 41 43 44 46 45 46 48 45 41 41 40 37 35 36 36 43 45 48 41 38 48 38 42 45 49 51
22 22 26 32 42 50 53 49 30 22 21 28 30 32 39 42 43 44 43 39 37 37 39 39 39 40 40 39 37 37 37 37 36 35 33 35 38 44 48 42 52 37 33 37 41 45 48
22 23 21 26 34 44 51 53 45 29 22 21 26 31 31 38 42 42 40 38 35 34 34 34 34 36 36 35 36 37 41 38 37 33 31 34 38 43 47 50 39 40 37 38 40 43 42
24 21 22 21 27 35 43 50 51 42 33 23 23 26 32 35 36 41 42 40 40 38 35 32 31 31 32 35 34 34 38 34 34 31 32 31 35 41 44 48 41 39 35 34 34 41 38
31 22 22 22 21 27 33 41 47 46 44 39 27 25 26 29 35 38 38 40 43 42 41 37 34 33 32 35 36 35 38 32 36 34 31 33 35 39 44 47 37 34 33 34 38 35 34
40 26 21 22 21 20 28 31 38 42 46 47 42 32 24 24 26 32 38 37 38 43 46 43 40 40 40 42 40 40 37 35 34 30 30 33 35 39 39 40 36 31 31 32 32 31 32
52 31 23 22 21 19 24 28 30 35 40 46 48 45 39 33 28 29 33 36 39 38 41 45 45 49 49 49 47 42 40 38 36 35 30 33 30 34 33 31 30 30 28 28 29 30 32